GFSNIL_sfc_wetblb_000.txt.gz
Wetbulb
39.61 38.36 36.02 35.05 33.92 33.18 32.46 31.92 31.22 30.86 30.55 30.21 30.29 29.88 29.15 28.99 28.61 28.26 27.35 26.46 26.28 27.07
37.25 36.85 35.68 33.69 32.85 31.98 31.79 32.95 30.42 30.18 29.83 29.62 29.55 29.17 28.41 28.06 27.60 27.01 26.91 26.58 26.18 25.86
34.34 33.91 32.89 32.26 31.49 31.03 30.42 30.27 29.96 29.60 29.37 29.15 28.85 28.28 27.51 27.02 27.47 26.93 26.98 28.25 25.84 25.26
32.60 32.18 31.46 30.81 30.22 29.94 29.68 29.59 29.46 29.41 29.04 28.47 27.87 27.33 26.56 26.29 27.57 26.75 26.41 26.37 26.18 26.01
31.95 30.97 30.20 29.49 29.40 29.80 29.03 29.15 29.04 28.80 28.53 27.99 27.66 26.73 25.93 26.41 26.86 26.20 25.74 25.94 25.66 25.81
30.59 29.81 28.88 28.92 29.27 29.49 28.98 28.46 28.37 28.21 27.61 27.20 27.24 26.78 26.68 26.57 26.59 26.27 25.87 25.45 24.79 25.08
29.35 28.93 28.76 29.01 29.00 28.95 28.39 27.91 27.56 27.42 27.08 26.96 26.60 26.84 27.09 27.83 26.74 25.72 25.86 25.70 25.25 24.99
28.94 29.14 29.15 28.83 28.45 28.29 28.08 27.47 27.36 26.87 26.10 25.52 26.56 29.42 29.32 29.00 27.20 24.73 24.23 24.46 24.97 25.98
29.41 29.42 28.70 28.05 27.67 27.86 27.38 26.62 26.07 25.22 24.78 24.19 27.97 32.58 34.79 33.14 26.78 25.10 24.59 23.29 24.63 25.09
29.53 28.75 27.92 27.45 27.43 27.00 25.22 24.54 23.89 23.63 23.45 22.79 22.94 32.66 33.97 34.16 27.09 25.28 24.07 25.54 25.77 26.22
28.88 27.80 27.25 26.62 25.85 24.41 23.58 23.07 22.84 22.57 22.44 21.84 24.52 32.15 32.91 33.39 26.63 24.89 24.53 25.66 24.82 24.31
28.32 27.08 26.10 24.56 23.56 22.91 22.39 21.96 21.49 22.31 21.62 20.93 22.02 30.93 32.00 31.40 25.83 25.68 25.07 25.82 25.32 25.22
26.74 25.48 23.80 23.12 22.44 22.15 21.42 22.83 23.12 23.12 22.08 25.06 21.39 28.84 31.50 31.14 26.80 24.67 25.66 26.12 26.61 30.89
24.55 23.47 22.72 21.80 21.10 20.31 20.29 21.32 20.07 21.29 20.82 21.17 23.04 23.89 31.18 32.10 28.18 26.78 27.35 26.06 26.77 27.29

GFSNIL_sfc_wetblb_003.txt.gz
Wetbulb
43.13 42.13 40.90 39.75 38.84 38.25 37.75 36.77 36.12 35.63 35.72 35.52 35.62 35.55 35.37 35.46 35.24 34.70 34.65 33.15 33.42 33.43
41.12 40.68 39.52 38.62 38.33 37.34 36.59 35.56 35.21 35.44 35.06 35.03 34.95 34.60 34.28 34.53 34.00 34.00 33.97 33.66 33.31 32.45
40.37 39.92 38.43 37.60 36.36 35.97 35.39 34.88 34.69 34.55 34.59 34.23 34.01 33.68 33.49 33.35 33.34 33.20 33.62 33.68 32.34 32.17
38.08 37.39 36.95 35.88 35.02 34.59 34.37 34.37 34.19 34.01 33.66 33.42 33.05 32.75 32.72 32.52 32.81 32.04 32.12 32.47 31.77 31.25
36.27 35.58 34.76 33.98 33.77 34.08 33.44 33.80 33.43 33.30 32.98 32.52 32.02 31.79 31.71 31.89 31.96 31.42 30.83 30.81 30.72 30.50
34.57 34.19 33.40 33.08 33.20 33.29 32.91 32.62 32.82 32.80 32.01 31.35 31.11 31.04 31.40 31.80 31.88 31.15 30.63 30.38 29.75 29.50
33.65 33.24 33.06 32.72 32.54 32.40 32.61 32.46 32.15 31.52 30.89 30.42 30.46 30.52 31.34 32.37 31.83 30.95 30.56 30.29 29.92 29.59
32.71 32.76 32.46 31.88 31.65 31.88 32.33 31.66 31.23 30.42 29.91 29.79 30.27 31.24 33.34 33.16 31.98 30.47 29.88 30.20 29.96 30.41
32.38 32.14 31.30 31.08 31.11 31.40 30.81 30.40 29.91 29.16 28.77 28.65 29.62 32.29 34.21 33.98 32.15 30.58 29.58 29.14 30.10 30.55
31.94 30.79 30.34 30.50 30.67 30.00 29.23 29.15 28.36 28.19 27.93 27.47 27.85 32.28 33.43 33.65 32.06 30.20 29.88 29.94 30.10 30.07
30.78 29.67 29.68 29.83 29.18 28.70 28.51 27.93 27.72 27.20 26.83 26.80 27.82 31.60 32.62 32.85 31.25 30.32 30.18 30.30 30.17 29.50
30.14 29.06 29.11 28.22 27.73 27.49 27.42 26.98 26.55 26.82 26.50 26.17 27.50 30.43 31.50 31.76 30.36 29.71 29.81 30.33 30.33 29.94
29.46 28.80 27.66 27.21 26.78 26.18 26.31 26.69 26.83 26.49 26.63 26.91 26.54 29.03 31.02 31.35 30.07 28.86 28.95 30.06 30.41 31.14
27.86 26.83 26.56 25.98 25.67 25.12 25.32 25.11 24.68 25.48 26.11 26.31 26.80 27.69 30.68 31.47 30.02 29.11 29.00 28.80 29.11 29.78

GFSNIL_sfc_wetblb_006.txt.gz
Wetbulb
46.01 46.57 45.31 46.21 45.93 45.11 44.21 42.93 42.13 41.57 41.14 40.61 40.42 40.32 40.49 40.75 40.56 39.80 39.60 37.87 37.98 37.63
46.26 47.84 47.50 45.56 46.28 45.04 43.54 41.34 41.04 40.83 40.13 40.15 39.76 39.62 39.54 40.04 39.07 38.92 38.77 38.13 38.06 37.26
47.82 47.11 45.53 45.32 43.84 42.57 41.37 40.45 40.11 39.80 39.61 39.39 39.14 38.91 38.75 38.53 38.29 37.79 38.63 37.51 36.90 36.54
41.89 43.11 43.65 43.60 42.49 41.51 40.28 39.93 39.36 39.12 38.88 38.68 38.33 37.95 37.97 37.78 37.50 36.59 36.67 36.71 35.69 35.01
43.15 43.73 42.61 41.29 40.58 40.15 39.16 39.25 38.67 38.47 38.32 37.68 37.12 37.14 36.96 36.69 36.84 35.83 35.27 35.16 34.60 33.92
42.65 41.94 40.78 39.71 39.06 39.03 38.37 37.90 38.02 38.04 37.27 36.39 36.06 35.97 35.95 36.15 36.14 35.78 35.34 34.60 33.72 33.00
41.52 40.63 39.57 38.68 38.18 37.81 37.89 37.56 37.22 36.94 35.99 35.46 35.35 34.96 35.05 35.88 36.05 35.73 35.05 34.43 33.83 32.96
39.62 38.94 38.03 37.50 37.04 37.17 37.48 36.79 36.53 35.56 35.06 35.11 34.90 34.61 35.58 36.33 35.95 34.99 34.28 34.11 33.76 33.45
37.53 37.26 36.83 36.45 36.45 36.43 35.80 35.54 35.14 34.55 34.14 34.10 33.57 32.13 34.01 34.67 34.64 34.43 33.41 32.58 33.06 33.57
36.54 35.60 35.66 35.91 35.74 35.23 34.90 34.62 34.08 33.82 33.48 32.91 32.85 31.83 33.37 33.87 33.95 33.46 32.81 32.44 32.41 32.40
35.57 34.59 35.07 35.09 34.52 34.06 34.10 33.70 33.76 33.11 32.47 32.05 32.02 31.16 32.40 33.14 33.48 32.98 32.81 32.74 32.60 32.07
34.76 34.18 34.07 33.50 33.33 33.19 33.47 33.19 32.80 32.25 31.45 31.08 31.73 30.26 31.49 32.31 32.42 32.20 32.09 32.54 32.72 32.10
34.76 34.14 33.36 33.20 32.59 31.85 32.86 32.04 32.06 31.08 31.33 29.84 30.51 30.36 31.03 31.87 31.75 30.99 31.23 32.10 32.46 32.77
33.79 33.21 32.88 32.15 31.95 31.74 31.61 31.06 30.67 30.21 31.06 30.61 30.31 30.26 30.84 31.46 31.18 30.74 30.20 30.43 30.50 31.51

GFSNIL_sfc_wetblb_009.txt.gz
Wetbulb
53.76 51.95 48.81 45.73 44.45 45.10 44.01 44.91 44.51 44.20 43.82 42.74 42.11 41.84 41.84 41.59 41.19 40.44 40.08 39.46 39.32 38.68
51.56 49.30 46.54 45.73 46.37 45.52 45.73 44.50 43.60 43.09 42.14 41.78 41.41 41.29 40.99 40.63 39.71 39.34 39.63 39.23 39.32 38.50
48.17 46.42 47.16 46.41 45.84 44.80 44.07 43.16 42.33 41.77 41.40 40.93 40.65 40.43 39.98 39.51 39.26 38.40 39.27 38.94 37.63 37.36
46.56 46.02 45.17 45.87 44.19 43.20 42.70 42.10 41.28 40.92 40.44 40.12 39.94 39.56 38.91 38.65 38.59 37.77 37.91 37.96 37.21 35.92
44.92 44.57 44.50 43.85 42.90 42.58 41.37 41.38 40.55 40.19 39.84 39.44 38.85 38.29 37.90 37.64 38.06 37.16 36.39 36.30 36.37 35.17
42.85 43.96 43.95 42.35 41.94 41.58 40.55 39.82 39.53 39.62 38.87 38.09 37.47 37.12 37.24 36.98 36.91 36.83 36.42 35.91 34.84 33.99
42.22 41.37 41.26 41.15 40.56 39.96 39.54 38.97 38.93 38.62 37.67 36.86 36.50 36.13 36.04 36.47 36.58 36.61 36.56 35.92 35.13 34.03
41.95 41.63 40.49 39.50 39.19 39.18 39.09 38.44 37.97 36.88 36.33 36.13 35.72 35.47 34.64 35.67 35.83 35.39 35.14 35.09 34.65 34.45
40.60 39.21 38.57 38.17 38.23 37.92 37.14 36.71 36.33 35.77 35.17 34.77 34.73 32.94 34.07 34.64 33.69 33.88 33.62 33.01 33.24 33.62
37.95 37.43 37.29 37.27 37.14 36.45 35.84 36.00 35.19 34.48 34.15 33.74 34.07 32.30 33.41 34.13 32.99 32.59 33.12 32.71 32.46 32.35
37.04 36.13 36.97 36.68 35.85 35.38 35.30 34.63 34.13 33.58 33.31 33.14 33.48 31.27 32.29 33.28 32.25 32.63 32.96 32.94 32.60 31.93
36.83 36.02 35.85 34.92 34.34 34.42 33.96 33.33 33.04 32.76 32.69 32.09 32.03 31.26 31.55 32.12 31.28 31.35 31.56 32.72 32.70 32.42
36.52 35.51 34.43 33.94 33.17 32.98 33.16 32.17 32.13 31.82 32.13 31.68 30.58 32.03 31.46 31.72 30.56 29.65 30.48 31.43 31.79 33.82
35.29 34.30 33.74 33.07 32.87 32.41 31.75 31.58 31.42 30.87 31.77 31.71 31.56 30.76 31.40 31.67 30.09 29.70 29.56 29.48 29.94 31.24

GFSNIL_sfc_wetblb_012.txt.gz
Wetbulb
51.10 46.01 44.05 44.67 43.32 42.74 42.63 42.59 43.55 42.41 39.13 38.42 38.51 38.05 37.72 36.90 36.54 35.41 34.46 33.58 33.67 34.01
49.80 47.21 44.88 44.91 43.99 43.28 43.31 42.99 43.01 41.05 37.49 37.36 37.37 37.27 36.76 35.86 35.05 34.39 34.10 33.46 33.20 33.07
49.72 47.48 45.47 44.52 44.20 43.68 43.22 42.34 40.67 38.27 36.79 36.53 36.62 36.37 36.00 34.89 34.95 33.89 33.59 34.27 32.49 31.94
46.73 45.75 45.25 44.68 43.89 42.50 41.82 40.88 39.77 36.85 36.30 36.21 35.95 35.82 34.80 34.56 34.70 33.76 33.17 32.80 32.51 31.84
45.64 45.27 45.04 42.96 41.59 41.21 40.27 39.64 38.83 36.44 36.34 36.60 35.30 34.72 33.57 33.40 33.80 33.11 32.10 31.85 31.43 31.17
43.57 42.86 41.93 40.87 40.71 40.48 38.84 38.16 35.97 35.96 35.48 35.12 34.87 34.28 33.16 32.76 32.94 32.26 31.92 31.37 30.34 29.93
42.43 41.57 40.50 40.39 39.27 39.17 37.87 35.20 35.64 35.01 34.79 34.58 34.40 34.11 33.11 33.31 31.98 31.75 32.28 32.44 31.37 30.12
40.86 40.47 38.94 38.38 38.92 38.59 35.92 34.77 34.69 34.30 33.96 33.37 33.55 34.21 32.25 32.76 31.60 30.44 29.84 30.05 30.77 30.67
38.30 37.70 37.20 37.30 36.47 35.12 33.72 33.35 34.07 33.21 32.25 31.67 33.97 34.76 34.66 33.69 30.27 29.77 28.45 27.84 28.58 29.53
38.54 37.94 36.27 35.55 33.89 32.80 32.56 33.30 32.09 31.31 31.40 30.89 31.21 34.03 33.28 33.66 29.71 28.45 27.68 27.62 28.05 29.07
35.86 35.19 34.94 33.71 33.38 33.07 32.69 30.84 30.65 30.76 31.28 31.20 31.64 32.92 32.57 33.19 28.25 27.24 27.33 27.42 27.72 27.07
35.33 34.38 33.73 32.04 31.58 30.73 29.82 30.41 30.30 31.16 30.30 28.19 26.89 31.92 32.01 31.14 26.95 26.04 25.50 28.01 27.80 28.18
34.68 33.10 31.03 29.48 28.98 30.57 30.80 30.30 30.45 29.17 27.69 30.77 25.89 31.89 32.00 30.69 27.40 24.40 24.89 26.13 27.22 32.44
32.58 30.93 30.18 30.03 30.45 28.91 28.00 27.66 26.40 26.05 26.23 26.20 27.17 25.99 32.05 32.04 27.49 25.93 25.93 25.66 25.92 26.89

GFSNIL_sfc_wetblb_015.txt.gz
Wetbulb
51.68 48.80 47.80 47.43 46.30 45.49 44.93 44.76 43.72 42.76 41.13 41.03 40.10 37.17 36.47 35.63 34.93 34.12 33.69 32.96 33.16 33.48
48.99 47.19 45.89 46.41 45.94 46.22 44.50 44.32 42.75 41.76 40.32 39.92 39.82 36.19 35.71 34.82 33.46 33.15 33.29 32.76 32.71 32.35
47.24 45.56 45.19 44.12 44.09 44.39 44.09 43.58 41.85 40.96 39.74 38.06 37.65 35.25 34.67 33.31 33.50 32.96 32.58 33.12 31.55 30.91
47.43 45.41 44.70 44.90 43.98 43.82 43.63 42.74 40.88 39.48 38.52 38.39 34.98 34.17 33.76 33.36 33.25 32.76 32.90 31.75 31.57 31.06
45.84 45.39 44.54 44.12 43.63 43.98 42.18 41.68 40.80 39.09 38.50 36.75 34.54 33.36 32.64 32.72 32.89 32.04 31.90 31.08 30.76 30.50
45.09 44.22 43.66 42.53 42.66 41.80 40.36 39.80 39.56 38.20 36.28 35.14 33.40 33.04 32.11 31.95 32.06 31.88 30.76 30.36 29.62 29.40
43.72 42.05 41.23 41.39 40.31 39.57 39.35 39.10 36.96 36.33 35.45 33.88 33.51 33.66 32.81 33.02 31.10 30.34 31.04 31.07 30.01 29.12
40.83 40.47 39.67 39.22 38.78 38.83 38.23 36.27 35.58 34.59 33.10 32.65 33.34 33.89 32.01 32.42 30.73 30.04 29.94 29.11 29.01 29.22
38.21 38.28 38.23 38.63 38.92 38.08 35.50 34.60 34.03 32.02 31.46 31.27 34.47 36.72 36.28 33.46 30.82 30.01 27.71 26.28 27.36 28.33
37.19 36.69 36.27 35.65 34.71 33.77 33.08 32.59 30.74 30.62 31.81 31.45 32.69 35.82 34.83 34.22 30.00 27.41 25.99 26.57 26.85 27.98
36.11 35.52 35.31 34.32 32.90 32.27 31.96 31.37 30.96 30.99 30.50 29.64 32.78 34.52 33.59 33.55 26.59 26.30 26.16 26.12 25.86 25.11
36.39 35.19 34.46 33.05 32.13 31.51 31.01 30.06 29.49 28.99 29.00 29.09 30.16 33.03 32.75 30.35 26.39 25.94 25.04 26.01 26.37 27.45
34.73 33.20 32.12 31.52 30.57 29.27 28.95 28.55 29.93 29.34 27.72 30.54 25.12 32.57 32.06 30.13 26.68 24.36 24.80 25.84 26.92 31.62
32.86 30.93 29.61 28.82 28.05 27.42 28.82 28.04 25.32 24.43 24.06 24.57 25.89 25.65 31.88 32.00 26.39 25.79 25.51 25.58 25.96 26.38

GFSNIL_sfc_wetblb_018.txt.gz
Wetbulb
55.27 52.56 51.42 49.88 48.27 46.55 45.72 45.41 46.15 44.40 42.73 41.46 41.05 40.41 37.51 36.02 36.44 33.30 32.45 31.95 32.31 32.56
50.45 49.77 48.91 48.24 46.95 46.82 46.67 46.03 45.46 43.15 42.15 41.28 40.58 39.40 38.15 36.61 33.62 32.53 32.10 31.69 31.87 31.90
50.57 50.21 49.18 48.12 47.24 46.14 45.96 45.48 43.41 41.73 41.51 41.02 39.54 38.38 37.62 35.50 33.21 32.31 31.76 32.22 31.39 30.71
48.29 47.31 47.95 47.28 46.30 45.31 45.03 43.61 41.69 41.07 40.38 39.34 37.81 37.03 36.08 32.75 33.37 31.84 31.49 31.38 31.90 31.27
45.93 45.65 45.26 44.69 44.44 44.88 43.07 42.68 41.05 40.54 39.47 37.85 36.86 36.09 34.28 34.17 32.57 31.87 30.90 31.16 30.89 30.86
45.02 45.48 44.93 43.78 43.04 42.84 41.30 40.57 40.18 39.57 38.47 37.37 35.93 34.63 33.76 32.47 31.66 30.88 31.03 30.95 30.80 29.73
44.64 44.68 43.79 42.93 42.24 41.40 40.42 39.79 38.88 38.59 36.83 35.35 34.28 33.91 33.51 31.65 30.69 30.57 31.84 31.47 29.99 29.22
41.60 42.36 41.47 40.26 39.95 39.63 39.21 38.13 36.63 35.27 34.53 34.14 33.78 34.01 33.01 31.65 30.27 31.13 30.18 29.68 29.95 29.39
38.71 38.67 37.85 37.47 35.90 35.20 34.80 34.75 34.70 33.76 33.12 33.11 35.32 37.70 36.65 33.20 31.13 30.36 29.23 28.20 27.72 27.58
37.18 35.65 35.95 35.43 34.71 34.24 33.74 33.69 32.51 31.89 31.97 32.28 34.08 37.03 36.10 34.09 30.26 28.77 26.78 26.49 25.84 27.02
35.94 35.50 35.80 34.90 33.57 32.48 32.27 31.50 31.07 30.80 31.29 32.16 33.99 35.91 34.87 32.81 27.98 26.34 24.64 25.74 25.26 24.39
36.13 35.20 34.70 33.50 32.73 32.63 32.13 31.99 31.29 30.97 29.82 30.50 31.41 34.25 33.72 30.00 25.22 25.57 24.59 25.77 25.46 26.94
36.30 35.18 33.89 33.49 32.94 32.34 31.53 30.14 29.76 28.37 28.97 30.86 26.77 33.37 32.48 29.69 25.94 23.78 24.63 25.05 26.13 30.67
33.12 32.49 32.18 30.24 29.44 28.60 28.33 27.80 27.18 25.38 23.87 23.39 24.37 24.13 32.13 32.22 26.09 25.57 25.22 25.02 25.28 26.04

GFSNIL_sfc_wetblb_021.txt.gz
Wetbulb
58.24 56.21 55.07 53.55 52.99 51.73 48.98 47.72 45.59 45.96 44.67 43.15 41.68 41.45 40.42 39.10 36.69 36.39 34.70 34.08 32.69 31.95
55.45 52.23 52.35 52.35 51.69 51.04 49.11 46.58 45.83 44.19 42.65 41.72 40.90 40.90 40.63 38.52 36.22 35.80 34.12 34.02 32.87 33.16
52.62 51.62 50.35 48.47 47.98 46.46 45.86 45.31 43.69 42.21 41.88 41.61 41.13 40.29 39.28 37.40 36.22 35.73 34.75 34.29 32.65 30.45
49.80 49.69 48.33 47.46 46.31 45.67 45.83 44.63 43.88 42.99 41.51 40.55 39.50 39.04 38.08 36.23 35.08 34.48 33.90 33.35 32.64 30.54
48.88 47.48 46.96 47.06 45.60 45.32 44.69 44.11 42.82 41.41 40.74 39.39 38.62 37.56 36.41 36.04 35.02 34.03 32.85 32.39 31.93 30.45
47.07 45.75 45.00 44.50 44.14 45.18 44.25 42.49 41.68 40.68 38.90 37.86 37.33 36.60 35.68 35.02 33.91 33.11 32.79 30.92 30.98 30.63
45.23 44.03 42.86 43.66 44.87 43.72 42.67 41.20 39.55 38.47 37.21 36.14 35.36 34.93 34.30 33.67 32.50 32.24 31.95 32.01 31.29 31.21
44.00 44.04 43.73 42.73 41.80 41.36 40.02 38.10 36.58 35.63 35.02 34.99 34.84 35.14 33.81 33.50 32.14 31.23 30.69 30.70 30.65 30.65
40.87 40.31 39.80 39.31 39.07 37.49 35.63 35.44 35.26 34.61 34.34 34.36 35.74 37.46 36.22 33.38 31.08 30.43 29.60 29.00 28.34 28.56
38.06 37.13 36.29 36.46 36.99 35.76 35.06 34.93 33.98 33.96 34.27 34.73 36.63 38.16 36.81 34.48 30.40 29.16 28.40 28.26 26.94 27.07
35.53 35.33 35.35 34.95 33.92 33.78 33.71 32.66 32.26 32.52 33.32 33.18 34.73 35.86 35.48 32.81 28.89 27.69 26.50 26.33 24.77 23.83
36.38 35.42 34.98 33.63 32.85 32.87 32.57 32.30 31.89 31.99 31.86 31.95 33.25 35.49 34.85 30.31 27.20 26.79 25.37 25.66 25.10 25.58
35.77 34.87 33.92 33.81 33.43 33.60 33.70 32.19 32.37 31.44 31.23 32.81 30.21 34.19 33.29 30.47 25.87 23.56 24.58 24.74 25.97 30.18
35.16 34.44 34.09 33.65 33.23 32.15 30.68 28.60 26.95 25.80 24.79 24.55 25.91 25.06 32.31 32.44 25.95 25.55 25.27 25.12 25.25 26.11

GFSNIL_sfc_wetblb_024.txt.gz
Wetbulb
61.59 58.45 56.40 55.17 55.93 54.24 52.62 51.53 50.48 48.14 47.42 46.44 44.17 42.79 41.70 40.69 39.84 39.71 37.15 35.57 35.53 34.96
59.95 57.18 54.25 52.88 53.38 53.70 52.41 51.29 48.10 48.11 46.58 44.44 42.79 42.14 41.59 40.91 38.23 38.26 36.20 35.13 35.00 34.57
55.02 58.39 53.66 50.47 50.88 51.25 50.21 47.99 46.65 46.35 44.75 43.69 42.49 41.58 40.72 38.04 37.04 36.25 35.82 35.60 34.73 33.81
51.57 50.55 50.33 49.17 48.28 47.04 46.10 46.08 46.49 45.29 43.90 43.06 41.64 40.40 39.48 37.43 36.65 35.66 34.94 34.57 34.22 33.20
49.23 47.73 46.79 45.80 44.74 44.31 44.13 43.89 43.74 43.81 42.48 41.25 40.26 39.02 37.30 36.47 35.86 34.84 34.34 33.87 33.64 32.94
47.08 45.81 45.69 46.67 45.44 45.55 44.35 43.64 42.89 42.49 41.30 39.74 38.32 37.02 36.86 36.36 36.20 35.68 35.35 34.36 33.49 32.07
47.15 46.38 46.77 45.35 45.23 44.27 43.43 41.69 41.17 39.95 38.44 37.81 37.19 36.44 35.35 34.37 33.60 33.13 32.96 32.70 32.01 31.49
45.05 44.57 44.73 43.61 42.61 41.48 40.56 38.76 37.46 36.85 36.85 36.60 36.53 36.24 35.03 34.69 33.85 33.20 32.13 31.40 31.05 31.11
41.02 40.93 40.36 39.54 38.22 36.98 36.53 36.36 36.35 36.17 35.70 36.04 37.70 39.21 37.81 33.96 31.44 30.72 29.70 29.26 29.57 28.96
36.51 35.98 36.85 37.23 36.94 35.67 35.67 36.48 35.79 36.45 35.95 36.06 37.12 39.09 37.63 35.22 31.31 30.31 29.49 29.32 28.41 28.34
35.99 35.69 36.08 36.16 35.61 35.37 35.60 35.88 34.86 34.77 35.49 35.80 37.30 37.85 36.33 34.01 29.61 28.24 27.81 28.25 27.02 26.54
36.43 35.14 34.56 32.90 32.45 32.74 32.56 32.52 32.62 33.16 33.12 32.35 33.01 36.91 35.05 30.49 28.33 27.66 26.77 27.12 26.26 26.77
35.22 34.16 33.03 33.52 33.05 33.62 33.58 32.35 32.33 31.86 32.19 35.20 32.25 35.12 34.52 30.43 27.80 25.19 25.37 24.59 25.76 29.78
34.86 33.85 33.16 32.12 32.70 31.77 30.75 29.52 28.70 28.18 26.84 26.96 27.10 28.31 33.21 33.64 26.61 25.97 25.60 25.24 25.21 26.06

GFSNIL_sfc_wetblb_027.txt.gz
Wetbulb
59.64 61.67 59.98 59.69 60.08 59.24 57.81 57.56 57.55 55.06 54.00 53.21 52.20 50.37 48.56 47.37 46.36 44.68 43.78 41.01 39.36 38.49
58.27 60.10 58.83 57.96 57.09 58.86 57.83 56.54 55.91 53.38 52.32 51.87 50.48 49.09 46.63 46.38 44.73 42.35 39.99 39.25 39.21 38.72
53.32 57.20 58.74 56.73 55.62 56.13 56.18 54.77 52.25 51.33 50.71 49.58 48.67 46.78 46.10 44.19 41.70 39.36 38.38 37.78 36.98 37.81
49.61 51.94 55.00 56.27 55.05 54.52 53.35 51.52 50.06 49.88 48.59 47.33 46.23 45.42 43.75 41.12 39.14 37.56 37.23 36.54 36.52 34.96
49.31 50.58 51.80 52.09 52.49 51.66 50.36 48.90 48.23 46.87 45.99 45.43 44.08 43.73 41.94 39.26 38.46 36.47 35.31 35.63 35.44 34.01
49.16 49.87 49.48 49.55 48.82 48.47 47.55 47.02 45.38 45.17 43.71 42.37 41.09 40.08 39.21 37.87 37.47 36.66 35.94 35.61 35.46 34.21
46.59 48.28 49.19 48.16 47.04 46.27 45.72 43.95 43.50 42.38 40.42 38.64 38.00 37.45 37.00 36.34 35.10 34.25 33.92 33.51 32.98 32.61
44.57 44.66 43.77 42.79 42.31 41.21 40.03 39.11 38.67 38.07 37.64 37.27 37.03 37.00 35.97 35.28 34.64 33.57 32.60 32.26 32.01 31.86
40.04 39.91 38.81 38.27 37.94 37.96 38.45 38.50 38.10 37.52 37.63 37.97 38.98 40.76 39.42 36.22 33.74 32.68 31.65 30.65 31.40 31.30
37.74 37.41 37.49 37.91 37.49 36.78 36.59 37.17 36.91 37.41 37.74 37.56 38.63 39.87 38.21 36.23 32.89 31.95 31.40 30.84 30.22 30.19
36.54 36.25 36.51 36.33 35.91 36.17 36.40 36.38 36.46 36.76 37.15 37.04 37.70 39.02 37.79 34.88 30.86 29.72 29.63 29.46 29.63 29.67
35.56 34.80 34.28 33.26 33.71 34.01 33.52 32.87 32.43 32.46 32.41 32.59 33.95 36.58 34.59 31.25 29.53 28.90 28.38 29.05 29.14 29.64
34.66 34.25 33.18 33.06 32.54 32.99 32.91 31.97 32.15 31.90 32.40 35.45 33.74 35.86 33.53 30.46 29.28 27.58 27.91 28.49 28.69 29.83
34.68 33.07 32.85 32.03 32.25 31.60 31.09 30.54 28.64 28.07 28.84 28.61 30.24 32.53 34.90 32.00 28.79 28.35 28.04 27.97 27.88 28.87

GFSNIL_sfc_wetblb_030.txt.gz
Wetbulb
57.16 56.93 60.22 61.56 61.26 60.87 61.28 61.28 61.84 60.72 60.27 60.17 59.96 59.50 57.75 55.42 53.15 49.04 47.06 46.83 44.12 41.48
55.17 58.39 60.61 61.17 61.49 60.91 60.69 60.61 61.24 61.00 59.50 58.80 58.47 57.72 56.35 55.15 53.47 51.80 50.79 48.54 44.14 41.16
53.97 54.63 56.57 59.80 58.71 58.58 59.06 58.83 58.68 59.05 58.11 57.10 55.30 54.66 53.88 52.14 51.40 48.41 45.84 43.20 40.95 38.70
53.24 53.97 54.64 55.19 57.20 57.41 57.38 57.45 57.01 56.60 55.58 54.30 52.41 51.13 49.75 48.21 46.75 43.19 39.97 39.02 37.99 35.97
52.90 54.07 54.66 54.86 55.35 55.57 54.45 54.39 54.23 53.84 52.08 51.41 50.16 48.78 47.04 43.05 41.51 40.36 37.83 38.34 36.22 35.27
51.63 52.50 53.35 52.58 53.09 52.54 52.35 51.83 51.18 51.14 49.49 47.63 46.67 45.21 43.77 41.48 39.13 38.02 37.39 36.90 36.26 35.35
48.74 49.79 50.49 50.71 49.95 49.66 50.02 48.85 48.49 47.29 44.89 43.30 42.20 40.64 39.12 38.51 37.69 37.15 36.55 36.40 35.08 34.26
43.19 44.93 45.14 43.77 43.33 43.06 42.69 42.16 41.90 40.77 39.43 38.93 38.63 38.26 37.38 36.49 35.25 34.17 33.70 33.48 33.62 33.49
39.47 40.08 40.74 39.74 39.49 39.10 39.13 38.98 39.04 38.80 38.49 38.44 38.92 39.87 39.33 37.14 35.42 34.38 33.49 32.02 32.14 32.56
38.34 37.54 37.45 37.95 37.82 37.56 37.78 38.63 38.53 38.99 39.72 39.52 39.95 41.05 39.88 37.55 34.42 33.00 32.24 31.89 31.45 31.48
36.75 36.11 36.35 36.09 35.86 36.27 37.24 37.40 37.35 36.94 37.58 37.88 39.09 39.61 37.70 35.07 31.37 30.77 30.41 30.62 30.88 30.84
35.91 35.07 34.57 33.49 33.45 33.60 33.30 32.98 32.65 33.29 33.11 32.67 32.54 36.10 35.30 32.31 30.55 29.70 29.70 30.60 30.62 30.84
35.62 34.66 33.67 33.62 32.88 33.46 33.33 32.63 33.64 32.21 32.52 34.92 31.96 34.64 33.05 31.27 29.84 29.51 30.07 30.80 30.48 30.11
35.49 34.42 34.19 33.41 34.00 32.77 32.30 32.54 31.79 30.83 31.26 33.04 34.24 34.60 33.15 32.22 31.85 31.01 30.43 29.68 29.79 30.82

GFSNIL_sfc_wetblb_033.txt.gz
Wetbulb
55.67 57.04 56.96 57.74 60.83 61.92 60.85 60.66 61.85 61.35 61.56 61.47 61.17 60.60 60.32 59.15 57.82 55.90 54.31 53.43 51.32 48.12
54.74 55.08 56.21 59.44 60.69 60.97 61.15 60.95 61.37 61.78 60.55 60.23 59.83 59.44 58.98 57.08 55.18 54.14 53.45 51.15 49.47 47.38
53.87 54.72 55.12 55.41 57.06 58.78 58.39 58.74 57.94 58.54 58.85 58.79 58.33 58.19 56.57 55.24 53.97 53.06 51.52 49.51 45.02 41.64
52.82 53.89 54.65 54.78 55.09 55.62 57.44 57.16 56.88 56.65 56.30 56.03 55.62 54.34 53.17 51.72 50.62 48.62 44.33 43.52 40.75 38.96
51.90 53.34 53.77 54.51 54.85 55.65 55.18 55.40 54.81 54.70 54.40 54.01 53.11 51.32 49.68 46.49 45.51 42.52 40.94 40.52 39.19 36.93
49.15 49.89 51.04 52.54 53.43 53.59 53.40 52.55 52.70 51.96 51.22 50.04 49.30 48.12 46.39 43.41 42.67 41.11 40.28 39.12 38.26 36.93
44.01 45.33 46.75 47.91 48.25 49.18 49.53 49.32 49.01 47.22 46.61 45.52 44.43 41.93 40.79 39.70 38.87 38.04 37.75 37.80 37.04 37.00
41.10 42.28 42.29 42.62 42.72 43.21 42.44 42.19 41.66 41.22 40.45 40.11 39.69 39.45 38.67 37.84 36.36 35.64 35.02 35.11 35.46 35.45
40.16 39.57 39.10 39.84 39.93 40.08 40.14 39.88 39.83 39.21 39.01 38.87 39.24 39.99 39.50 37.68 36.19 34.79 34.02 32.71 33.07 34.39
38.54 37.71 37.93 38.26 38.47 38.51 38.48 38.98 38.90 39.37 39.73 39.30 39.82 40.75 39.70 37.83 34.70 33.20 32.47 32.10 32.28 32.93
36.92 36.32 36.24 35.92 35.42 35.03 35.29 35.22 34.88 34.74 35.63 36.66 37.77 38.97 37.83 35.60 31.74 31.05 31.19 31.64 31.60 31.12
36.19 35.19 34.67 33.58 33.52 33.82 33.44 32.76 32.44 32.95 32.66 32.46 33.37 37.07 36.31 33.00 31.04 30.56 30.52 30.95 30.80 30.76
35.85 34.93 34.15 34.15 33.29 33.91 33.84 32.85 33.50 32.43 33.23 34.09 32.41 34.56 33.84 32.23 31.19 30.00 29.46 30.55 30.58 30.58
35.92 35.42 34.96 33.93 33.74 32.49 32.42 32.32 31.93 32.34 33.16 34.10 34.58 33.27 33.75 33.28 31.47 30.36 29.52 28.98 29.06 30.24

GFSNIL_sfc_wetblb_036.txt.gz
Wetbulb
49.75 50.00 51.04 52.37 52.32 53.69 56.84 58.33 59.85 61.40 61.53 61.65 61.56 61.13 60.29 59.62 58.61 56.07 54.12 53.33 51.91 49.64
49.28 49.49 49.88 50.42 50.96 55.42 56.43 57.06 56.69 56.53 58.73 59.85 59.93 59.90 58.94 58.68 58.08 56.25 54.38 53.42 51.74 47.70
47.91 49.37 49.99 50.03 49.73 50.48 52.82 53.72 54.45 54.35 55.15 56.77 57.80 57.46 56.53 55.70 54.78 53.25 51.65 50.28 48.63 44.31
46.71 48.80 49.88 50.17 50.54 50.92 51.86 52.35 52.49 52.68 52.69 53.91 54.38 53.73 52.57 51.32 50.81 48.24 45.79 44.91 44.62 41.70
45.21 46.21 47.01 48.46 49.90 50.67 50.66 51.02 50.90 50.79 50.84 50.19 49.47 49.05 48.22 45.67 45.78 43.36 42.08 40.92 40.22 39.32
42.05 43.08 44.25 44.62 44.70 45.79 47.20 47.78 47.25 46.34 45.60 45.36 44.90 45.19 43.91 42.76 41.71 41.72 40.69 40.20 39.06 38.19
41.16 41.96 42.27 42.79 42.40 41.05 40.68 40.12 40.21 39.54 39.12 38.93 38.93 39.19 39.33 39.40 38.39 38.39 38.30 38.24 37.70 37.12
40.20 40.41 40.53 40.70 40.73 40.93 39.76 38.30 38.51 39.28 39.14 39.31 39.02 39.42 38.07 37.82 37.18 36.17 35.14 35.08 35.38 35.31
39.01 38.94 39.00 39.35 39.46 39.68 39.89 39.93 38.83 38.97 39.25 39.14 39.94 40.80 39.81 37.13 35.16 34.64 33.91 32.71 32.86 34.22
37.47 36.85 36.82 37.03 36.72 36.93 36.84 37.20 37.13 38.20 38.67 38.51 39.16 40.32 39.27 37.38 33.86 32.89 32.46 32.56 32.86 33.62
36.40 35.81 35.71 35.34 35.15 34.90 35.08 34.63 34.52 34.48 35.25 36.13 37.79 39.07 38.00 35.80 32.06 31.44 31.55 31.94 31.48 31.01
35.65 34.85 34.43 33.33 33.56 33.90 33.17 32.57 32.21 32.54 32.72 32.91 34.09 37.43 36.06 32.90 30.93 30.51 30.56 30.65 30.71 30.51
35.69 34.88 33.74 33.77 33.45 32.89 32.61 31.60 32.47 32.19 32.60 33.73 30.05 34.81 34.47 32.26 30.11 26.73 27.92 29.00 29.14 31.78
35.93 34.64 34.27 33.19 32.51 32.08 31.60 27.70 22.60 25.30 30.33 30.83 29.82 30.15 34.35 34.01 28.43 26.44 26.04 25.86 26.05 27.78

GFSNIL_sfc_wetblb_039.txt.gz
Wetbulb
47.33 47.56 48.31 48.49 48.87 50.03 52.34 55.41 57.76 60.53 60.88 60.85 60.85 59.84 60.32 59.34 58.42 56.03 55.27 54.38 52.08 51.36
45.24 46.69 47.60 48.39 48.44 48.89 50.72 55.08 54.88 54.99 55.10 55.90 57.24 57.89 58.81 57.87 57.35 56.87 54.91 53.96 53.66 51.14
44.95 46.86 47.87 48.57 48.59 49.48 50.43 52.33 52.56 52.68 52.81 52.84 53.90 54.94 54.53 54.47 53.66 53.48 51.34 50.98 49.74 46.42
43.18 44.35 45.42 45.99 46.97 48.28 49.87 50.31 50.31 50.29 50.45 50.34 50.39 50.63 49.73 48.39 48.15 47.09 46.51 46.23 46.21 43.01
41.11 42.17 41.92 41.61 42.23 42.36 44.54 45.71 46.15 46.54 46.10 45.37 46.29 45.71 45.04 44.04 43.41 42.52 43.05 42.07 40.93 39.65
39.82 39.93 40.53 41.26 42.12 41.76 41.06 39.64 39.56 39.65 39.14 39.32 40.37 41.85 42.62 42.19 41.19 40.99 40.80 40.36 39.63 38.83
39.53 39.74 40.84 41.46 41.48 40.33 38.37 37.87 37.80 37.77 37.91 38.19 38.01 38.57 39.41 39.04 37.91 37.42 37.71 38.00 37.78 37.64
39.31 39.16 40.21 40.36 40.47 40.84 40.34 38.17 37.75 37.77 38.12 38.54 39.19 39.02 37.09 37.30 36.55 35.71 35.16 35.54 36.12 35.90
38.27 38.27 38.52 38.98 39.20 38.92 38.65 38.53 37.95 37.88 38.94 39.31 40.13 40.86 39.69 36.71 34.88 34.52 33.89 33.15 33.68 34.83
37.26 36.79 36.71 37.11 36.94 36.36 36.14 36.29 35.96 36.68 37.68 37.81 38.80 40.17 38.86 37.16 33.84 33.05 32.68 32.83 33.40 33.13
36.18 35.73 35.84 35.59 35.04 34.71 34.56 33.98 34.06 34.39 35.20 36.38 37.97 38.92 37.60 35.86 32.27 31.68 31.59 31.70 31.34 30.95
35.69 34.87 34.61 33.57 33.46 33.53 31.87 31.51 31.81 32.76 33.09 33.14 34.16 36.93 36.08 32.85 29.47 26.38 26.71 28.95 29.10 28.93
35.69 34.75 33.80 33.52 32.65 33.01 32.86 32.24 32.38 31.56 25.96 32.63 23.26 34.94 34.73 29.35 25.41 22.37 25.64 26.10 26.44 32.53
35.18 34.35 33.43 32.70 32.71 31.88 22.92 21.13 22.10 28.40 29.51 25.91 28.64 29.98 34.65 33.09 26.05 24.26 24.03 24.13 24.61 26.83

GFSNIL_sfc_wetblb_042.txt.gz
Wetbulb
44.67 45.95 47.09 47.14 47.15 47.19 48.32 52.27 54.70 56.61 57.10 57.10 57.79 59.06 59.08 56.54 55.86 57.17 56.82 55.95 53.26 52.33
44.64 45.74 46.66 47.46 47.85 48.44 49.15 52.11 52.84 52.89 52.84 53.19 54.13 55.28 55.33 54.45 54.03 55.93 55.20 54.72 54.05 52.01
42.72 43.88 44.70 45.36 45.13 47.40 48.99 50.08 50.66 50.32 50.61 50.63 51.07 51.82 51.58 50.59 50.14 50.05 49.75 51.39 51.35 48.48
40.80 41.91 41.84 41.35 41.27 43.05 45.17 46.20 47.05 47.68 47.05 47.14 46.73 46.64 46.33 45.65 44.95 47.23 46.82 45.69 45.79 43.54
40.00 40.18 40.27 40.21 40.41 40.71 39.98 40.12 40.48 41.51 41.71 42.66 43.03 42.52 42.09 41.38 41.41 43.66 42.64 41.80 41.29 40.00
38.55 38.75 39.24 40.01 40.06 39.35 38.97 38.03 38.09 38.43 38.27 38.55 39.20 39.63 39.53 39.55 39.45 39.77 40.03 39.82 39.36 38.87
38.06 38.40 40.39 41.19 41.10 40.37 38.64 37.04 37.23 37.54 37.84 37.80 37.31 37.35 37.25 36.48 35.17 35.26 37.12 37.61 37.72 37.51
39.37 39.74 40.15 40.05 40.02 40.25 40.03 37.58 37.12 37.30 37.73 37.86 38.32 38.20 35.58 35.55 35.52 35.47 35.48 35.91 36.75 37.13
38.15 38.21 38.14 38.38 38.35 38.15 37.80 37.86 38.23 38.00 37.74 38.19 38.83 39.95 39.40 35.48 34.46 34.74 34.38 33.64 34.10 34.95
37.14 36.72 36.95 37.04 36.52 35.84 35.50 35.94 35.87 36.43 37.42 37.24 38.02 39.28 38.59 37.09 32.09 31.77 31.34 32.15 32.09 32.52
36.35 36.00 36.19 35.71 34.87 34.12 34.21 34.17 34.52 34.65 35.32 36.44 37.86 38.91 37.76 35.74 31.50 29.16 26.20 27.77 26.23 27.62
35.93 35.25 34.90 33.77 33.13 32.73 32.52 32.33 32.35 32.99 32.95 32.72 33.22 36.03 35.03 29.11 22.32 22.94 23.18 27.10 26.63 26.97
35.89 35.06 33.82 33.33 32.75 33.01 32.80 31.86 31.60 24.00 24.41 31.31 19.93 34.40 34.13 27.91 24.70 21.41 24.69 24.16 25.57 32.91
35.34 33.96 33.49 32.96 30.46 24.28 19.86 26.26 28.84 29.09 28.22 23.72 28.00 28.78 34.07 32.99 25.98 24.14 24.03 24.04 24.58 26.31

GFSNIL_sfc_wetblb_045.txt.gz
Wetbulb
45.00 45.90 46.48 46.64 46.53 46.83 46.82 47.87 52.15 53.85 54.07 54.04 55.28 56.00 56.08 54.86 54.22 54.04 56.25 55.44 52.94 52.01
42.99 43.88 44.40 45.17 46.44 47.90 48.38 51.68 50.62 50.86 50.79 51.19 52.21 52.95 53.16 52.73 52.93 54.73 54.03 53.66 53.52 52.58
41.36 42.25 41.99 42.07 42.53 45.25 46.10 47.28 47.96 48.32 48.25 48.16 47.89 48.31 47.70 46.78 47.88 49.45 48.72 48.47 48.29 46.36
40.12 40.89 40.90 40.42 40.34 40.90 41.19 41.96 43.41 44.29 45.04 44.70 44.09 44.14 43.76 43.18 44.37 46.14 44.75 44.07 43.54 41.81
39.20 39.38 39.46 39.23 39.05 39.59 38.58 38.91 39.30 39.99 40.36 40.82 41.03 40.49 40.43 40.08 40.10 40.39 40.41 40.77 41.41 40.17
37.77 37.91 38.29 38.93 38.87 38.52 37.82 37.39 37.75 37.98 37.58 37.62 37.77 37.63 37.33 37.24 36.99 37.22 37.35 36.93 36.62 36.67
37.52 37.59 38.90 40.99 40.74 40.04 39.26 37.07 37.05 37.24 37.36 36.98 36.25 36.08 35.61 34.89 33.89 34.21 34.95 35.66 35.61 35.67
39.09 39.83 40.15 39.76 39.81 39.68 39.27 36.90 36.33 36.60 37.20 37.75 38.27 37.65 34.21 34.74 35.69 36.10 35.50 35.35 35.84 37.47
38.25 38.33 38.26 38.21 37.88 37.47 37.24 37.56 37.71 37.62 37.79 37.83 38.96 39.95 38.88 36.23 34.83 34.63 34.34 33.48 33.56 34.80
37.22 37.01 37.00 36.71 36.09 35.71 35.46 36.21 36.16 36.82 37.77 37.60 38.06 39.52 38.60 36.56 31.62 28.56 28.13 28.09 28.37 30.47
36.63 36.39 36.22 35.42 34.38 34.23 34.49 34.37 34.52 34.68 35.39 35.89 37.48 38.47 37.08 34.44 26.96 24.62 24.38 25.68 23.51 25.70
36.41 35.71 35.01 33.51 32.89 33.10 32.94 32.63 32.14 32.11 30.77 24.95 25.96 35.15 33.90 27.54 21.97 22.51 21.88 25.17 25.77 26.01
36.17 35.17 33.75 32.92 32.65 32.80 32.75 31.77 26.28 21.02 20.01 30.76 18.70 34.63 33.62 26.72 24.48 20.47 23.65 23.60 25.07 31.73
35.44 34.23 33.80 32.96 32.30 30.21 29.32 29.49 29.16 23.08 20.09 22.21 27.61 27.48 34.09 33.25 26.51 24.49 24.35 24.27 24.89 26.21

GFSNIL_sfc_wetblb_048.txt.gz
Wetbulb
44.26 45.61 46.27 46.27 46.50 47.19 47.49 48.68 49.73 51.63 51.77 52.24 53.36 54.49 56.69 56.01 55.22 54.06 55.20 54.40 54.10 53.44
42.14 42.77 43.06 43.28 44.89 46.72 46.95 49.48 48.78 49.12 49.32 49.36 50.07 50.88 53.14 52.85 52.55 51.84 51.32 50.61 51.05 50.31
40.53 41.29 41.09 40.99 41.37 42.54 42.72 44.77 45.77 46.09 46.39 46.23 46.14 46.52 46.27 47.89 49.77 48.65 47.90 47.85 46.24 45.11
39.41 40.10 40.17 39.61 39.38 39.75 39.95 40.08 41.25 42.49 42.84 42.45 42.14 42.62 42.64 42.67 46.18 45.94 44.51 43.17 43.04 41.05
38.46 38.72 38.64 38.23 38.05 38.32 37.66 38.17 38.44 39.18 39.15 39.18 39.07 38.63 38.76 38.51 38.63 38.83 38.21 38.06 38.04 37.43
36.59 36.82 37.15 37.69 37.90 37.98 37.52 37.03 37.37 37.36 36.75 36.60 36.65 36.23 35.70 35.54 35.35 35.21 35.24 35.07 34.80 34.95
36.17 36.94 38.15 39.82 40.35 39.72 39.18 37.80 36.44 36.65 36.51 36.01 35.24 35.04 34.50 34.93 35.66 36.24 36.63 37.10 37.60 35.99
39.13 40.09 40.05 39.52 39.20 39.14 38.83 37.94 37.37 38.22 38.48 38.68 38.41 36.68 35.76 36.57 36.49 36.24 35.67 35.59 36.34 37.60
38.43 38.64 38.35 38.04 37.43 37.36 37.39 37.66 37.89 37.73 37.78 37.80 38.55 39.44 38.93 36.26 34.81 34.61 33.69 32.62 32.40 34.36
37.63 37.28 36.74 36.58 36.42 35.83 35.91 36.64 36.65 37.24 37.91 37.66 38.28 39.09 38.25 35.73 29.04 27.05 25.51 26.35 27.04 29.64
37.01 36.46 35.95 35.30 34.81 34.66 34.93 34.69 34.56 34.16 33.62 32.92 35.91 37.21 36.04 33.19 24.49 22.33 21.75 24.07 21.60 24.77
36.86 35.93 35.08 33.88 33.38 33.68 33.47 32.84 31.80 27.68 24.78 23.09 24.27 34.74 33.42 26.66 19.50 21.10 20.61 24.77 25.89 26.64
36.60 35.36 33.84 33.29 32.71 33.06 32.94 31.13 25.64 20.96 18.15 30.37 18.86 34.09 32.71 26.06 23.84 19.60 23.24 23.44 24.81 31.24
35.77 34.59 33.81 32.88 32.53 31.39 30.10 24.54 20.87 19.43 19.17 21.90 27.08 26.44 33.86 33.14 26.47 24.89 24.54 24.59 25.31 26.39

GFSNIL_sfc_wetblb_051.txt.gz
Wetbulb
46.82 48.15 48.71 48.62 49.26 50.18 50.52 51.32 52.76 53.39 53.90 54.25 55.36 57.03 58.31 57.22 57.05 58.16 57.14 55.84 55.81 55.15
45.18 45.51 45.57 45.58 47.34 49.11 48.51 49.62 50.28 50.89 51.29 51.30 52.08 53.74 54.87 54.68 53.72 53.33 53.02 53.45 53.47 51.44
43.66 44.10 44.12 44.13 44.08 44.46 44.59 45.50 46.91 48.00 48.15 48.21 48.70 49.53 51.18 51.39 50.95 50.29 49.93 49.65 48.42 47.35
42.57 42.82 43.17 42.79 42.37 42.30 42.43 42.53 43.33 44.40 44.66 44.47 44.71 45.89 47.33 47.16 48.06 47.77 46.36 46.00 45.51 44.23
41.34 41.66 41.88 41.35 40.86 41.02 40.70 40.99 41.25 41.68 41.60 41.54 41.60 42.28 42.99 42.42 42.35 42.29 41.44 41.51 41.53 40.46
40.00 40.52 40.79 40.69 40.50 40.63 40.41 40.01 39.95 39.91 39.50 39.16 39.34 39.41 39.29 39.20 38.65 38.39 38.60 38.80 38.82 38.68
39.45 40.05 40.94 41.32 41.07 40.43 40.03 39.08 38.98 39.13 38.55 38.02 37.66 37.68 37.82 38.09 38.04 38.12 38.59 39.36 39.38 38.86
40.10 41.15 40.89 40.16 39.77 39.68 39.24 38.88 39.21 39.27 39.26 39.50 38.74 37.72 37.78 37.92 37.66 37.18 36.68 36.99 37.80 38.75
39.55 39.52 39.08 38.57 38.35 38.16 38.04 38.41 38.63 38.42 38.91 38.75 39.03 39.62 39.43 37.83 36.55 35.68 35.12 34.25 33.75 35.09
38.74 38.01 37.52 37.44 37.19 36.94 37.07 37.84 37.84 38.23 38.53 38.38 38.14 38.94 37.94 35.43 32.47 31.14 30.57 31.03 32.43 32.23
37.91 36.92 36.64 36.37 35.84 35.81 36.23 36.02 35.62 34.88 35.37 36.05 36.71 37.41 35.69 32.79 29.60 29.06 29.09 29.46 29.61 31.22
37.62 36.42 35.77 35.07 34.79 35.03 34.61 33.51 31.73 30.54 30.39 30.80 32.21 34.46 33.16 29.53 28.58 27.92 28.03 29.77 30.91 31.79
37.50 36.24 34.95 34.41 33.98 34.31 34.08 32.12 30.35 28.49 27.81 32.02 29.02 34.04 32.50 29.19 28.44 26.89 27.49 28.15 28.92 32.02
36.80 35.54 34.80 33.96 33.73 32.93 32.26 29.03 27.04 27.87 26.55 28.11 30.62 30.47 34.64 32.85 29.41 28.65 27.88 27.96 28.32 29.35

GFSNIL_sfc_wetblb_054.txt.gz
Wetbulb
51.44 52.85 52.88 52.32 52.98 53.58 53.83 54.46 55.19 55.93 56.64 56.91 57.61 59.36 60.25 59.96 59.60 58.80 58.44 58.16 57.63 56.87
50.75 50.39 50.51 50.32 51.90 52.97 52.73 52.11 53.26 54.22 54.68 54.73 55.18 55.86 56.10 56.03 55.54 54.86 54.46 54.38 55.33 54.52
48.68 48.88 49.61 49.86 49.69 49.70 50.04 49.84 50.87 51.87 52.16 52.30 52.72 53.66 53.72 53.61 53.32 52.56 51.77 52.08 52.17 52.11
48.39 48.15 48.24 48.43 48.38 48.41 48.17 48.01 48.51 49.00 49.44 49.33 49.94 51.20 51.58 50.27 50.26 50.10 49.48 49.62 49.98 48.39
46.68 46.76 46.99 46.99 46.60 46.83 46.76 46.53 46.45 46.88 46.94 46.97 47.07 48.30 48.98 47.85 47.20 47.62 47.06 46.84 46.78 45.44
45.20 45.60 45.97 45.91 45.77 45.75 45.70 45.55 45.22 45.10 45.07 44.90 44.91 45.10 45.34 45.24 44.36 44.08 44.21 43.87 43.82 43.66
44.12 44.66 45.28 45.62 45.21 44.58 43.83 42.72 42.25 43.16 42.95 42.62 42.21 41.63 41.30 41.44 41.42 41.38 41.40 41.66 41.77 41.65
43.89 44.31 44.27 42.70 41.83 41.34 40.80 40.37 40.65 40.93 41.69 41.50 40.41 40.21 40.10 40.08 39.91 39.58 39.43 39.57 39.59 40.96
43.07 42.62 41.65 40.74 40.34 40.12 39.40 39.44 39.65 40.14 40.37 40.08 39.84 40.50 40.30 40.07 39.10 38.77 38.33 37.37 37.34 37.78
41.92 40.80 39.97 39.50 38.96 38.43 38.25 38.99 38.91 39.62 39.62 39.20 39.31 39.27 38.45 37.47 37.33 36.18 35.67 36.34 36.72 35.91
40.81 39.62 38.96 38.23 38.00 37.89 38.20 38.26 38.14 38.06 38.46 38.28 38.07 37.75 35.94 34.71 34.05 33.34 32.99 33.38 33.85 35.06
40.06 38.55 37.88 37.49 37.31 37.27 36.92 35.97 35.28 36.20 35.69 35.44 36.54 35.26 33.76 33.10 33.13 32.25 32.44 33.30 34.07 34.47
39.63 38.52 37.42 37.07 36.24 36.29 35.66 34.03 34.17 32.97 33.62 33.93 34.79 34.03 32.86 32.09 32.42 30.40 30.53 31.50 31.94 32.63
38.87 38.11 37.32 36.06 35.52 34.89 34.65 33.98 33.15 32.71 32.40 32.84 34.33 35.35 34.18 32.28 31.66 31.28 30.66 30.49 31.03 32.09

GFSNIL_sfc_wetblb_057.txt.gz
Wetbulb
53.57 53.68 53.36 53.15 53.24 53.41 53.93 54.52 55.39 55.50 56.12 56.77 57.43 58.40 58.76 59.83 59.14 58.61 59.37 59.17 57.41 56.87
51.98 51.91 51.91 51.75 52.21 52.81 53.50 52.86 53.01 54.43 54.73 55.43 55.77 56.41 56.08 56.12 55.34 55.19 54.78 54.48 54.80 53.92
50.40 50.25 50.47 50.58 50.45 50.73 51.22 50.83 51.37 52.47 53.01 53.23 53.56 53.98 54.46 54.11 54.08 53.30 52.52 52.89 52.61 52.05
49.50 49.29 49.39 49.32 49.69 49.42 49.42 49.32 49.52 49.96 50.44 50.57 50.90 51.77 52.59 51.81 51.47 51.48 50.75 51.16 50.90 49.70
48.26 48.15 48.05 48.38 48.37 48.16 47.77 48.02 47.59 47.96 48.18 48.49 48.46 49.28 50.29 49.29 49.01 48.91 48.53 48.38 48.38 46.91
47.38 47.16 47.20 47.66 47.43 46.90 46.85 46.71 46.70 46.31 46.38 46.25 46.39 46.77 47.18 47.30 46.57 46.27 45.85 45.71 45.43 44.95
46.08 46.44 46.88 47.25 46.71 46.24 45.71 44.82 44.33 44.42 44.44 44.10 43.73 43.30 43.23 43.69 43.66 43.10 42.71 42.66 42.68 42.37
45.61 45.80 45.84 45.40 44.48 43.55 42.84 42.09 41.83 41.72 42.13 42.43 41.54 41.35 41.32 41.61 41.33 40.98 40.13 40.17 40.36 41.11
44.58 44.30 43.82 43.40 42.50 41.75 40.83 40.42 40.44 40.37 40.59 40.60 40.51 40.81 41.18 41.03 39.91 39.81 38.93 37.81 38.24 38.35
43.96 42.36 41.92 41.86 41.15 40.18 39.27 39.25 39.35 39.78 40.21 39.69 39.22 39.95 39.63 39.85 39.35 38.07 37.60 37.53 37.39 36.55
42.72 41.04 40.67 40.35 39.67 39.23 39.13 38.92 39.06 39.53 39.25 38.50 38.33 38.08 37.11 36.71 35.39 34.49 34.14 34.26 34.49 35.18
41.83 40.44 39.69 38.90 38.77 38.71 38.19 37.04 35.87 38.04 37.75 36.67 37.01 36.25 34.97 34.28 33.74 33.10 32.60 32.88 33.81 34.33
41.58 40.46 39.02 38.75 37.86 37.75 37.04 34.75 34.79 34.00 34.71 35.15 35.00 34.43 33.36 32.96 32.45 30.24 29.67 30.70 31.74 33.27
40.91 40.07 39.49 38.39 37.14 35.62 34.71 34.39 34.79 33.68 33.11 33.39 33.76 33.86 33.97 32.83 30.69 30.28 29.54 29.32 29.57 30.71

GFSNIL_sfc_wetblb_060.txt.gz
Wetbulb
51.13 50.42 50.94 50.34 49.79 49.76 50.13 50.82 51.80 52.35 52.96 53.68 54.53 55.02 55.69 56.54 56.95 56.88 56.37 56.48 55.60 56.26
49.84 49.37 49.38 48.74 49.02 49.09 49.70 50.47 49.40 50.70 51.46 52.34 52.75 53.08 54.93 54.86 54.23 54.29 53.98 53.90 54.20 53.44
47.62 47.64 48.17 47.68 47.34 47.54 47.66 47.91 47.86 48.67 49.62 50.02 50.37 50.90 52.90 52.90 53.25 52.36 51.59 51.89 51.68 50.97
47.13 47.42 47.05 46.74 46.25 46.11 46.06 45.97 46.27 46.87 47.15 47.42 47.54 48.13 50.87 50.55 50.51 50.55 49.87 49.87 49.73 48.41
46.45 46.34 45.93 45.88 45.66 45.15 44.60 45.11 44.49 44.66 44.89 45.49 45.57 45.60 46.17 47.92 47.60 48.05 47.40 47.62 47.23 44.60
44.89 44.70 44.26 44.73 45.14 45.04 44.66 43.97 43.80 43.53 43.20 43.32 43.47 43.01 42.59 44.25 43.40 43.64 42.88 42.36 43.35 41.80
43.70 43.91 44.15 44.89 44.78 44.07 43.13 42.11 41.00 41.14 41.77 41.36 40.60 40.84 40.97 41.19 40.16 39.68 39.87 39.96 39.76 40.06
42.59 43.23 43.26 43.10 42.35 41.70 40.99 40.08 39.92 40.80 41.66 41.76 41.38 41.41 41.09 41.43 41.07 40.24 39.57 39.54 39.97 38.89
42.22 42.14 41.76 41.34 40.25 39.73 38.77 38.73 39.42 40.06 40.30 40.18 40.52 41.37 42.00 41.12 39.85 39.66 38.46 37.53 37.55 37.86
41.68 40.71 41.02 41.71 40.89 38.93 36.82 37.44 39.07 39.42 39.85 38.83 39.43 41.19 41.24 41.13 38.60 37.16 36.59 35.99 35.40 35.11
40.74 39.70 40.68 40.12 39.58 38.60 36.55 38.20 38.66 38.97 38.55 37.98 38.29 38.78 38.98 37.61 31.70 29.99 30.54 31.43 31.77 32.33
39.78 38.86 39.70 38.85 38.51 38.40 37.97 37.10 34.93 37.32 36.64 35.40 35.44 37.13 36.46 32.72 26.81 27.20 27.75 29.97 31.12 31.67
39.79 40.00 37.98 38.43 37.72 37.53 36.87 34.70 34.57 33.38 33.44 35.65 30.75 35.48 34.32 32.21 28.59 27.62 27.80 28.25 30.16 34.00
39.52 39.63 38.16 37.90 37.39 35.21 34.30 33.84 33.36 32.55 30.30 30.55 32.37 31.89 34.57 33.50 28.57 27.44 26.42 26.29 26.92 29.11

GFSNIL_sfc_wetblb_063.txt.gz
Wetbulb
50.36 49.92 50.07 50.58 50.35 50.05 50.05 50.54 51.06 51.80 51.89 52.13 52.94 53.40 54.19 54.30 54.58 54.37 55.25 55.85 56.38 55.83
49.56 49.66 49.22 48.55 48.71 48.91 49.33 49.55 48.72 49.51 50.37 50.94 51.40 51.74 52.17 53.72 53.63 52.92 53.29 53.78 54.19 53.35
48.33 48.17 48.00 47.40 47.67 47.70 47.68 47.93 47.89 47.71 48.35 48.86 49.05 49.55 50.66 52.39 53.17 52.49 51.67 51.89 51.74 51.01
46.64 47.31 47.00 45.95 45.82 46.69 46.31 46.32 45.78 46.42 46.45 46.31 46.22 46.22 46.63 51.01 50.43 50.11 50.11 49.84 49.78 48.01
44.87 45.13 44.86 44.96 45.07 45.24 44.47 45.24 45.33 45.02 44.80 44.78 44.43 44.45 44.31 48.07 48.32 48.16 47.63 47.85 46.98 45.45
43.47 43.32 43.71 43.71 44.70 44.40 44.34 43.98 43.69 43.64 43.16 43.16 42.62 41.61 41.40 45.23 44.90 44.41 43.96 44.46 44.28 43.31
42.42 42.44 42.67 43.09 43.05 43.71 42.82 41.33 40.90 41.12 41.80 41.34 40.96 40.65 40.55 41.29 40.59 40.23 40.22 40.10 39.50 39.88
41.75 42.42 42.42 41.78 40.84 40.49 39.98 39.89 39.92 40.10 40.67 40.96 41.38 41.49 41.27 41.62 41.01 40.36 39.68 39.72 39.52 39.90
41.17 41.07 41.00 40.08 39.12 38.65 37.72 37.88 38.27 37.99 39.01 39.73 40.54 41.76 42.50 41.55 40.23 39.58 38.57 37.91 38.38 39.32
40.74 40.26 39.94 39.49 38.68 37.18 35.66 35.79 36.30 37.26 39.04 38.86 40.09 41.92 42.45 41.66 39.20 37.94 36.79 36.14 35.74 35.27
40.12 39.33 39.13 38.96 38.95 38.82 36.38 34.84 36.41 38.34 38.88 38.01 38.84 40.25 40.43 39.26 35.60 34.74 34.48 34.72 32.98 30.99
39.55 38.24 37.97 37.31 38.82 38.55 38.09 37.71 36.14 38.03 36.83 35.74 36.14 38.27 37.98 32.25 27.14 28.15 27.58 29.62 29.95 31.43
39.22 38.33 36.89 37.57 38.18 38.05 37.70 35.64 35.59 33.77 34.63 36.66 33.92 37.68 36.58 31.60 27.79 27.28 27.53 28.05 29.76 35.36
38.40 37.40 37.09 37.05 36.35 36.07 35.08 34.70 33.92 33.47 32.75 32.51 31.55 31.59 35.76 35.14 28.59 27.19 25.75 26.06 26.50 29.46

GFSNIL_sfc_wetblb_066.txt.gz
Wetbulb
55.32 53.42 52.68 52.74 51.60 50.39 49.85 50.73 51.66 52.09 52.23 52.31 52.94 52.54 52.41 52.65 53.04 52.93 52.64 52.62 53.24 54.01
51.29 52.71 51.40 50.82 49.77 49.54 49.88 50.22 49.97 49.97 50.61 51.03 50.95 50.67 50.43 50.85 51.00 51.11 50.61 51.16 51.86 53.78
48.18 48.66 48.68 48.64 48.68 49.19 49.41 49.03 48.14 48.20 48.72 49.05 48.62 48.72 49.04 49.74 51.26 52.12 51.71 51.62 51.85 51.53
46.54 46.82 46.76 46.23 46.80 46.47 47.20 47.23 46.40 46.85 46.63 46.28 46.24 46.07 45.76 47.09 50.96 50.39 50.67 50.11 50.36 49.13
46.27 45.76 45.17 44.40 44.59 45.20 44.40 44.75 44.47 44.38 44.09 43.99 44.37 43.86 43.51 44.20 47.52 48.59 48.06 48.25 47.80 46.14
43.53 43.66 43.26 43.91 43.55 43.44 43.02 42.79 42.64 42.82 42.57 42.62 42.49 41.93 42.05 43.04 44.86 45.77 45.51 45.64 45.91 44.48
41.78 41.97 42.08 42.63 42.80 42.65 42.38 41.02 40.26 40.33 41.30 41.15 40.47 40.38 39.90 40.72 40.60 40.99 41.03 41.20 41.63 42.22
41.54 41.55 41.34 41.36 40.88 40.46 40.01 39.21 38.82 39.10 39.72 39.59 39.66 40.32 39.16 40.81 40.80 40.35 39.96 39.95 40.17 40.90
40.81 40.40 40.26 39.53 38.69 38.05 37.43 37.19 37.20 37.41 38.23 37.90 39.60 41.67 42.59 42.01 40.64 40.08 39.20 38.52 39.31 40.40
40.23 39.65 39.24 38.71 37.78 36.54 35.35 35.19 35.53 35.98 36.82 36.41 37.71 41.97 42.65 42.57 39.78 38.45 37.55 36.76 36.40 36.10
39.73 38.96 38.53 37.77 37.00 35.73 34.61 34.08 34.36 35.56 36.71 36.07 38.91 41.13 41.76 40.72 37.13 36.42 35.67 35.56 34.73 33.53
39.76 38.45 37.94 36.92 36.06 35.80 36.85 36.64 36.38 38.49 37.54 35.89 36.97 39.80 39.43 35.51 33.03 32.74 32.25 32.43 32.72 30.43
39.69 38.87 37.43 36.35 35.45 36.03 38.14 36.77 36.43 34.28 35.51 37.09 34.58 39.07 38.31 31.87 26.51 26.85 26.67 27.98 29.50 35.90
38.49 37.68 36.94 35.35 35.43 35.65 35.59 35.60 34.80 34.32 33.73 34.33 34.82 33.79 38.08 35.68 28.37 27.15 26.31 26.84 28.18 29.67

GFSNIL_sfc_wetblb_069.txt.gz
Wetbulb
58.10 56.14 56.59 56.25 55.63 53.91 53.02 52.70 53.26 52.99 52.45 52.50 52.89 52.75 51.93 51.79 51.83 52.96 52.29 51.49 51.31 51.76
52.69 53.27 53.32 54.77 53.86 52.93 53.20 53.14 51.48 51.36 51.02 51.02 51.49 50.42 50.20 50.06 50.21 50.39 49.73 49.59 49.64 49.97
47.34 48.34 48.83 49.57 49.96 49.48 49.59 49.09 48.81 48.83 48.78 48.76 48.65 48.65 48.87 48.60 49.93 50.30 50.12 49.42 49.15 49.65
45.63 46.09 46.49 46.57 47.47 47.54 47.81 47.47 46.91 46.39 46.24 45.98 46.43 45.29 44.52 45.07 46.36 47.83 48.35 48.96 50.09 50.19
45.26 45.07 45.73 45.81 45.82 46.28 45.94 45.73 44.59 44.38 44.09 43.63 43.53 42.93 42.44 42.75 43.40 45.30 46.60 48.40 48.20 47.52
43.61 43.46 43.50 43.84 45.19 45.21 44.65 44.49 44.01 43.18 42.19 42.16 42.32 41.50 40.72 41.16 42.29 43.44 44.31 45.84 46.70 46.03
42.02 41.98 41.95 42.33 42.59 42.65 42.31 41.47 40.91 40.83 41.02 40.96 40.27 39.85 39.32 39.58 39.26 39.12 39.79 41.89 42.70 43.40
41.55 41.40 41.23 41.05 40.95 40.61 40.13 39.24 38.64 38.37 38.63 38.76 38.96 39.63 38.14 38.99 38.32 38.45 40.13 40.27 40.75 41.32
40.90 40.44 39.99 39.60 38.94 38.23 37.49 37.05 36.98 36.86 37.28 37.13 39.11 41.62 42.65 41.45 38.36 40.46 39.67 38.76 39.87 41.07
40.26 39.40 39.01 38.63 37.55 36.60 35.57 35.11 35.28 35.44 36.10 35.87 36.28 41.87 42.69 43.45 40.26 39.21 38.31 37.27 37.43 37.44
39.71 38.75 38.21 37.35 36.64 35.38 34.33 34.23 34.10 34.66 35.42 35.14 37.02 41.76 42.19 41.73 37.93 37.27 36.58 36.27 35.72 34.72
39.70 38.31 37.56 36.77 35.75 34.82 34.48 33.77 32.69 36.38 38.14 36.73 34.36 40.82 41.10 37.19 34.18 34.17 33.75 34.39 34.00 32.99
39.09 38.47 37.54 36.52 35.09 34.69 34.71 34.85 36.23 34.82 36.61 37.95 34.19 39.79 39.97 35.42 31.96 31.79 30.92 30.16 30.34 35.98
38.37 38.22 37.57 35.42 34.42 33.57 33.80 34.96 35.20 34.90 34.03 35.40 36.14 35.91 40.19 37.78 28.84 28.77 26.92 26.58 27.03 28.45

GFSNIL_sfc_wetblb_072.txt.gz
Wetbulb
56.11 57.05 57.42 57.69 57.56 57.30 56.38 55.91 55.38 54.60 54.12 53.02 53.09 52.74 52.95 52.16 51.47 51.64 51.31 52.14 52.54 53.05
51.43 53.04 52.87 53.94 54.70 54.71 55.70 55.26 54.01 53.79 51.76 51.36 51.11 50.87 50.59 50.11 50.40 50.03 50.32 49.80 49.34 50.30
47.54 49.66 50.48 50.93 51.46 52.26 52.95 51.66 50.90 49.67 49.81 49.74 49.43 48.82 48.40 48.14 48.85 48.97 49.10 49.39 49.10 49.21
45.86 46.23 46.54 46.79 47.21 47.84 47.82 48.11 47.69 47.50 47.28 46.92 46.42 45.66 45.04 44.88 45.38 45.89 46.92 47.48 47.66 47.87
44.72 44.87 44.82 44.96 45.80 46.74 46.53 46.73 46.02 45.51 45.17 44.77 44.47 43.68 42.82 42.67 42.61 42.99 43.72 45.29 45.88 46.31
43.13 43.06 43.30 43.49 44.21 44.72 44.21 43.72 44.03 44.12 43.48 42.99 42.46 41.65 40.74 40.63 40.77 40.93 41.60 42.38 43.87 46.62
41.81 41.84 41.74 42.21 42.56 42.85 42.65 41.89 41.31 41.76 41.82 41.00 40.28 39.65 39.07 38.79 38.16 38.13 38.88 39.76 40.52 43.52
41.56 41.21 40.85 40.84 40.89 40.57 40.24 39.60 39.04 38.68 38.68 38.60 38.80 39.25 37.71 37.99 37.51 37.27 37.46 38.04 40.12 41.55
40.88 40.40 39.93 39.52 38.92 38.40 37.75 37.19 37.11 36.93 37.24 36.85 39.03 41.78 42.80 41.07 37.38 37.76 37.65 38.40 39.81 41.17
40.28 39.53 38.94 38.62 37.77 36.90 35.88 35.19 35.45 35.43 35.86 35.67 35.88 41.56 42.74 43.06 40.43 37.43 38.57 37.75 38.41 38.41
39.33 38.82 38.19 37.47 36.73 35.48 34.49 34.49 34.17 34.49 35.00 34.83 36.26 41.84 42.20 43.28 38.84 35.59 37.47 36.83 37.16 36.39
38.68 38.01 37.35 36.73 35.64 34.69 34.08 33.35 32.40 34.53 34.51 34.28 36.20 40.93 41.47 37.63 34.61 34.69 34.83 35.74 35.17 34.31
38.48 37.78 37.28 37.31 35.35 34.30 34.00 34.23 35.38 34.05 33.97 37.76 36.20 40.05 41.44 38.14 33.82 33.47 33.01 32.33 32.38 37.04
37.57 37.11 36.98 35.26 34.15 33.77 33.54 35.05 35.29 34.78 34.21 34.95 37.05 36.39 41.10 40.16 31.64 30.89 30.85 30.88 29.61 29.49

GFSNIL_sfc_wetblb_075.txt.gz
Wetbulb
57.60 58.87 59.57 59.66 59.51 59.59 58.75 58.33 57.63 56.37 55.92 55.39 54.42 54.04 54.03 53.81 54.39 54.82 54.93 54.31 54.12 54.53
52.97 55.09 55.87 56.73 57.67 57.88 57.83 57.29 57.25 57.18 55.82 53.83 53.39 53.12 53.21 53.11 53.03 53.35 53.62 53.67 53.42 53.03
49.20 51.20 53.01 54.17 54.67 55.40 55.82 55.66 54.31 53.40 52.05 52.17 52.01 51.98 51.33 50.62 51.00 51.29 51.80 52.24 51.86 51.64
48.60 48.75 49.22 50.45 51.39 52.32 51.72 51.56 51.21 50.86 50.24 49.41 48.78 48.49 48.17 48.29 48.34 48.63 49.51 50.35 50.78 51.03
47.04 47.43 48.03 48.19 49.12 49.48 49.23 49.83 49.79 48.73 48.47 47.90 46.57 46.23 46.31 45.65 45.92 45.89 46.08 47.04 48.21 48.91
45.33 45.78 46.21 46.60 46.89 47.27 47.30 46.70 47.02 46.96 45.65 44.66 45.26 44.89 44.85 44.60 44.31 44.52 44.71 45.07 45.73 47.45
44.20 44.79 45.17 45.55 45.65 45.92 46.01 45.08 44.80 44.98 44.35 44.16 43.94 43.18 42.54 42.26 42.34 42.37 42.48 42.72 43.55 44.29
43.32 43.92 43.87 43.85 44.18 44.11 44.04 43.67 43.36 42.71 42.58 42.70 42.46 42.06 42.14 42.06 42.10 41.83 41.72 41.85 42.17 43.44
42.24 42.84 42.99 42.76 42.43 42.24 42.01 41.72 41.53 41.28 41.16 40.88 41.08 42.91 43.48 41.83 41.22 40.83 40.82 40.95 41.48 42.66
41.88 41.68 41.87 41.98 41.28 40.87 40.52 39.88 40.04 40.31 40.43 40.48 40.99 43.04 43.53 43.60 42.03 41.24 40.89 40.64 40.49 40.38
41.12 40.95 41.10 40.86 40.55 40.17 39.58 39.42 39.36 39.28 39.55 39.66 39.50 42.20 43.15 43.21 42.31 40.57 40.22 39.47 39.37 38.65
40.40 40.12 40.07 39.64 39.89 39.13 38.53 38.05 37.21 38.47 38.29 38.08 38.47 41.94 42.28 41.04 38.38 37.90 38.11 38.53 37.92 36.93
39.60 39.44 39.24 39.39 38.40 38.36 38.28 37.19 37.41 35.69 37.15 38.25 37.50 41.43 42.12 39.89 37.45 36.79 36.23 35.50 35.08 38.07
38.97 38.55 38.76 38.37 37.81 36.88 36.68 37.19 36.50 36.01 35.95 36.41 38.86 39.59 42.16 41.93 36.48 36.09 35.38 34.02 32.38 32.76

GFSNIL_sfc_wetblb_078.txt.gz
Wetbulb
60.55 61.57 62.15 62.91 62.64 62.89 61.32 61.37 61.08 60.47 60.19 59.04 57.86 56.17 55.59 55.37 54.81 55.14 55.40 55.72 56.04 56.50
54.93 56.69 58.43 59.45 61.24 61.53 61.72 60.76 60.23 60.06 58.79 57.73 57.81 56.69 55.77 54.84 54.57 55.07 56.03 55.99 56.18 55.44
51.85 52.87 54.68 56.31 57.54 58.40 59.37 59.01 59.01 58.27 57.05 56.18 55.88 55.25 54.70 54.30 54.10 53.58 54.25 54.49 54.17 53.98
51.30 51.37 52.02 52.95 54.48 55.80 56.54 55.72 54.95 54.25 54.41 54.32 54.03 53.49 52.68 52.35 51.98 51.87 52.10 52.39 52.67 52.66
50.82 50.94 50.54 51.13 51.94 53.07 54.10 54.59 52.49 51.68 52.02 51.89 51.58 51.36 50.50 49.01 48.96 49.14 48.60 49.32 50.08 50.45
48.60 49.62 50.24 50.41 51.15 51.12 52.28 52.82 53.40 51.46 50.83 50.91 50.16 49.70 49.38 49.58 48.48 48.34 48.87 49.11 48.68 49.66
46.88 47.71 48.63 49.90 50.06 49.92 50.77 51.15 51.13 50.85 50.24 49.28 48.87 48.98 48.42 47.50 47.05 46.76 47.08 47.56 47.75 47.58
45.95 47.05 47.36 47.39 48.51 48.63 48.80 49.25 49.19 49.17 48.06 47.92 47.64 46.59 46.63 46.32 46.68 46.58 46.19 46.00 46.06 46.03
45.19 45.77 46.47 46.92 47.29 47.54 47.45 48.00 47.41 46.68 46.46 45.74 45.31 44.44 44.90 46.22 44.98 45.03 44.75 44.35 45.02 45.38
44.16 44.10 44.76 45.32 45.85 45.97 46.05 46.41 45.48 45.91 45.72 45.26 45.63 44.15 44.62 43.90 45.26 44.57 44.45 44.27 44.11 43.78
43.37 43.10 44.27 44.85 45.11 45.94 46.24 45.32 45.11 45.04 45.04 45.22 44.67 43.89 44.48 44.39 44.89 44.54 44.01 43.83 43.79 43.20
42.52 42.42 42.73 43.18 44.25 45.27 45.05 44.39 44.28 44.65 44.28 43.67 43.80 42.64 43.67 43.86 43.35 42.62 42.20 42.71 42.83 41.26
41.75 41.93 41.77 42.57 42.91 43.70 43.57 43.44 43.09 40.55 43.18 42.53 42.99 42.59 43.40 43.21 41.14 40.14 40.86 41.28 41.38 40.24
40.87 41.59 41.62 41.61 42.59 41.72 41.30 42.05 41.31 39.78 38.87 40.17 42.07 42.90 43.23 43.03 39.11 39.97 40.12 38.98 37.66 38.28

GFSNIL_sfc_wetblb_081.txt.gz
Wetbulb
59.84 61.32 63.21 63.03 62.48 61.92 62.07 62.52 62.53 62.32 62.02 61.73 61.01 59.50 58.48 57.36 56.67 56.64 56.00 55.41 55.39 55.60
54.03 56.20 57.82 59.74 61.12 62.05 62.26 61.55 61.47 61.14 60.48 60.31 59.14 57.71 57.10 56.70 55.90 55.65 55.52 55.46 55.53 54.87
51.75 52.53 53.73 55.89 57.23 58.99 59.75 59.51 59.91 59.65 59.16 58.09 57.43 56.88 55.86 55.74 56.10 55.16 55.55 55.39 55.27 54.93
51.48 51.62 51.79 52.56 53.85 55.33 57.11 57.66 57.89 57.31 56.72 55.92 55.64 56.07 56.03 55.19 54.40 53.90 53.77 53.42 53.48 53.25
49.97 50.94 51.28 51.35 52.06 52.77 53.48 55.43 54.73 53.84 54.14 54.45 54.99 54.83 53.65 52.32 51.89 51.60 51.32 51.66 51.73 52.02
48.40 48.64 49.01 50.27 51.00 51.59 51.49 53.14 54.53 52.16 51.19 51.36 51.88 52.33 51.88 51.18 49.93 49.90 49.71 49.74 49.57 49.85
46.81 47.40 48.11 48.81 49.55 50.38 50.85 51.15 51.97 52.61 50.84 50.09 49.93 49.68 49.41 49.31 48.92 48.14 47.90 48.69 48.75 48.76
46.44 47.00 47.37 47.95 48.27 48.99 49.53 49.50 50.38 50.70 50.21 49.66 48.14 47.86 48.72 47.77 47.00 46.72 46.19 46.96 47.07 47.03
45.63 45.43 45.86 46.36 46.74 47.44 48.25 48.84 49.02 48.70 48.61 47.83 47.06 46.80 46.68 47.61 46.95 46.99 46.51 45.78 45.64 46.07
44.35 44.42 44.70 45.45 46.07 46.38 46.61 47.80 47.80 47.71 47.51 46.91 47.13 45.80 45.70 45.69 46.69 45.58 45.25 45.18 45.01 44.82
42.49 42.61 43.90 44.04 44.55 45.40 46.55 46.55 46.70 46.58 46.81 46.65 46.64 45.55 45.42 45.18 44.80 45.17 44.89 44.40 44.42 44.11
41.00 40.82 41.98 42.70 43.02 43.52 44.12 44.61 45.15 45.90 45.72 45.33 45.39 44.54 45.06 44.68 43.26 42.14 42.91 43.44 43.61 43.48
40.61 40.59 40.64 41.31 41.74 42.33 42.78 42.63 43.35 42.75 43.74 45.03 44.00 44.39 44.10 44.05 42.53 40.67 40.89 42.08 41.96 43.03
39.42 39.56 40.59 41.36 41.35 41.01 40.28 41.17 41.25 41.46 41.62 41.40 43.24 43.76 43.72 44.13 42.29 40.39 39.70 40.08 38.75 39.85

GFSNIL_sfc_wetblb_084.txt.gz
Wetbulb
57.60 58.76 60.94 60.46 60.63 60.01 59.63 59.94 60.78 60.68 59.74 59.93 60.78 59.87 59.20 58.59 57.62 56.97 56.49 55.83 55.55 55.11
50.38 52.09 54.67 57.16 58.75 60.82 60.77 60.79 60.45 60.39 60.32 60.50 60.32 59.17 58.33 57.67 57.04 56.86 56.09 55.60 55.39 55.14
49.02 49.54 49.93 51.21 52.93 54.88 56.88 58.40 59.06 59.48 59.69 59.71 59.39 58.28 57.39 56.43 56.15 55.45 55.02 55.11 54.44 53.77
47.21 48.50 48.89 49.05 49.51 50.61 52.53 54.49 56.12 57.06 57.55 57.40 56.85 56.47 55.70 55.36 55.17 54.54 54.55 53.71 53.60 52.82
45.99 46.25 46.30 47.29 48.24 48.93 48.91 50.89 53.12 53.15 54.52 55.06 55.26 55.38 55.21 54.10 53.73 53.51 51.77 51.17 50.97 50.64
44.04 44.25 44.66 45.46 46.43 47.93 47.99 48.67 50.37 51.17 51.53 52.59 53.53 53.61 53.26 52.55 51.44 50.00 49.87 49.99 49.74 49.88
42.77 43.16 43.72 44.81 45.68 45.91 46.83 46.78 47.73 49.46 49.79 50.88 50.76 50.56 50.18 49.62 49.12 47.90 47.83 48.10 47.55 47.58
42.79 43.05 43.08 43.45 44.08 44.74 45.13 45.86 46.24 46.92 47.75 48.20 48.61 48.97 48.48 48.05 47.63 47.00 45.86 45.51 46.04 45.86
41.93 42.12 41.91 42.12 42.70 43.39 43.73 44.03 45.10 45.08 45.37 45.08 45.87 47.33 48.19 47.26 46.10 46.24 46.24 44.26 44.42 44.84
40.56 40.45 40.81 41.48 41.54 41.83 42.07 42.89 42.66 43.42 44.02 43.77 44.11 47.03 47.05 46.86 44.84 44.89 44.42 43.85 43.65 43.39
38.70 38.33 39.30 39.96 40.65 41.20 42.63 42.91 43.74 42.82 43.08 42.82 43.58 46.90 46.42 46.05 41.87 41.96 42.11 42.29 42.28 41.39
36.94 37.40 37.97 38.10 39.81 40.58 40.80 40.86 40.27 43.39 43.33 42.33 42.01 45.65 45.74 44.61 39.62 38.64 39.47 41.49 41.87 41.04
35.55 35.93 35.42 36.77 38.33 39.66 39.88 39.94 40.25 40.17 42.04 43.29 42.35 44.51 45.26 44.22 38.31 37.36 38.67 39.95 41.54 44.03
34.47 34.45 34.20 34.64 36.19 36.51 38.52 39.21 39.04 39.28 40.42 41.14 41.62 41.99 45.23 45.19 41.77 39.56 38.77 39.48 39.28 39.98

GFSNIL_sfc_wetblb_087.txt.gz
Wetbulb
55.03 57.52 59.63 60.03 59.53 59.24 59.12 58.73 59.01 59.46 59.76 59.52 59.35 59.50 59.98 59.56 59.06 58.51 58.07 57.31 56.28 55.56
50.94 52.40 52.16 54.88 57.48 59.53 60.05 60.23 60.18 59.80 60.03 60.20 60.23 60.34 59.63 58.92 57.86 57.41 57.46 57.22 56.49 56.03
47.24 47.96 49.10 51.33 51.37 53.25 55.23 56.54 57.60 57.97 58.80 59.41 59.63 59.50 58.79 58.16 58.19 57.33 56.97 56.42 55.77 55.27
45.18 45.77 46.44 47.18 47.83 48.30 49.42 50.45 52.98 53.76 54.71 56.72 57.48 57.45 57.14 56.88 56.26 56.17 55.39 55.36 55.34 54.58
43.95 44.31 44.47 44.87 45.78 46.80 47.11 48.20 49.04 51.68 51.51 53.06 55.61 56.16 55.69 55.02 54.96 54.80 54.09 54.05 53.93 53.05
42.61 42.75 42.70 43.51 44.75 45.53 45.69 46.22 47.10 49.19 50.04 50.22 52.65 54.25 54.71 54.84 54.13 54.17 53.93 53.15 53.04 51.43
41.26 41.55 41.93 42.68 43.39 43.99 44.56 44.42 44.92 45.80 47.72 49.12 49.97 51.56 51.80 51.65 50.97 50.69 50.58 51.07 50.67 49.60
41.12 41.52 41.64 41.74 41.98 42.67 43.22 43.52 43.85 44.46 45.18 46.19 47.73 48.85 49.28 49.02 48.40 48.18 47.63 47.94 48.54 48.34
39.97 40.05 40.02 40.57 41.11 41.44 41.61 41.95 42.72 42.80 43.35 43.66 45.06 46.95 48.59 47.92 46.81 47.01 46.55 45.61 46.71 46.05
38.41 38.05 38.38 38.99 39.34 39.37 40.27 41.12 40.96 41.46 42.12 42.07 42.68 46.35 47.59 47.55 44.29 43.96 44.59 44.63 44.50 44.20
35.68 35.99 37.13 37.36 37.76 37.93 40.12 40.24 40.50 41.00 42.42 43.02 42.79 45.77 46.72 46.91 42.56 41.46 41.63 42.01 41.98 41.69
34.35 33.76 35.04 34.48 35.29 36.29 36.85 38.28 39.33 40.37 40.59 41.04 42.22 44.67 45.27 45.36 39.75 38.30 38.83 40.53 40.82 40.64
33.52 33.05 32.79 32.86 33.50 34.73 35.60 36.83 37.47 36.93 38.12 40.41 40.70 43.17 44.11 44.57 40.60 38.61 39.25 38.96 40.25 43.82
32.36 31.60 31.56 31.35 31.78 32.03 33.20 34.41 33.65 34.24 34.81 35.92 38.39 41.30 43.28 43.60 42.88 40.96 40.03 40.14 39.63 40.17

GFSNIL_sfc_wetblb_090.txt.gz
Wetbulb
52.62 53.99 55.73 58.51 59.31 58.97 58.80 58.74 59.21 59.69 59.89 59.81 60.22 60.11 60.04 60.27 60.45 59.68 59.12 57.31 57.44 57.36
48.62 50.85 51.51 51.94 53.71 55.70 57.00 58.89 59.60 59.34 58.85 58.72 58.53 58.54 58.62 59.13 58.48 58.22 58.27 58.34 57.48 56.75
45.31 46.04 47.49 48.86 48.94 49.26 51.14 52.60 54.94 56.55 58.00 58.94 59.38 59.52 59.43 59.09 59.05 58.21 58.13 57.97 57.36 57.04
43.96 44.46 45.03 45.32 45.69 46.11 47.12 47.83 48.87 51.92 52.53 53.99 55.62 57.68 57.93 58.11 57.88 57.55 57.67 57.07 56.30 55.87
42.91 42.94 42.93 43.37 44.14 45.02 44.73 45.76 46.37 47.92 50.37 50.33 51.77 55.11 55.99 56.17 55.90 55.71 55.62 55.13 54.85 54.79
41.43 41.60 41.65 42.15 42.94 43.84 44.17 44.27 44.50 44.90 45.63 48.09 49.26 50.58 54.00 54.90 54.92 54.75 54.91 54.68 54.10 54.33
39.79 39.97 40.64 41.34 41.82 42.26 42.89 42.95 43.35 43.87 44.16 45.11 47.09 48.47 49.41 51.62 51.99 51.91 51.91 52.27 52.73 53.06
38.64 38.97 39.19 39.61 40.31 40.84 41.07 41.36 42.04 42.27 42.78 43.40 44.23 46.24 46.63 47.74 49.02 48.99 48.97 48.93 49.51 49.90
37.07 37.00 37.30 37.73 38.36 38.64 39.11 39.75 40.35 40.75 41.03 41.40 43.34 45.89 47.14 47.03 45.19 46.00 47.00 46.81 47.09 47.84
34.45 34.53 35.21 36.30 36.49 36.54 36.35 37.24 38.03 39.48 41.00 40.59 41.59 45.28 46.22 46.38 44.09 43.10 43.08 44.12 44.79 44.74
33.08 32.66 33.18 33.84 33.57 34.19 35.66 35.92 36.49 37.05 38.24 39.01 41.00 43.58 44.66 45.35 43.27 41.65 40.81 40.59 41.48 42.07
32.27 31.70 31.76 31.37 31.46 32.19 33.05 33.58 33.90 36.40 36.27 36.10 37.43 41.78 42.85 43.67 42.04 40.58 40.45 40.09 40.09 40.17
31.77 31.06 30.10 29.93 29.81 31.00 31.78 32.62 34.42 34.42 34.24 35.64 34.23 39.00 41.72 42.67 41.49 40.27 40.66 41.00 40.60 42.89
31.00 30.10 29.64 28.92 29.03 28.91 28.68 30.08 29.35 31.11 31.49 31.61 33.37 34.67 39.33 40.90 40.84 40.67 40.92 40.88 40.34 40.78

GFSNIL_sfc_wetblb_093.txt.gz
Wetbulb
51.00 52.63 53.30 54.22 55.37 57.81 58.41 58.50 59.40 59.37 59.46 59.60 59.82 59.89 59.82 59.79 59.94 59.86 59.66 59.52 59.54 59.35
46.73 48.11 49.03 50.09 50.48 51.89 53.27 54.30 57.22 59.04 59.01 59.47 59.35 59.52 59.50 59.49 59.50 59.27 59.31 59.41 59.12 58.17
44.15 44.83 46.17 46.95 46.41 47.23 48.67 49.84 51.74 53.63 54.53 55.86 57.85 58.95 58.70 58.67 58.87 58.31 58.52 58.49 58.07 57.76
42.93 43.29 43.73 43.93 44.39 44.92 45.68 46.01 46.61 48.32 51.15 51.68 52.63 55.07 56.45 57.54 57.72 57.57 57.77 57.64 57.24 57.21
41.88 42.15 42.01 42.19 42.77 43.80 43.83 44.68 44.70 45.18 46.19 48.11 49.97 51.16 53.47 54.75 55.69 55.75 55.70 56.24 55.80 55.60
39.52 39.75 40.01 40.73 41.49 42.29 42.50 42.80 43.34 43.67 43.74 44.47 45.98 47.98 49.22 51.91 53.55 54.27 54.85 55.18 54.94 54.95
36.99 37.34 37.76 38.76 39.49 40.24 40.82 40.84 41.39 41.82 42.15 42.83 43.59 44.99 46.21 47.37 48.63 50.77 51.61 52.38 52.72 53.68
35.39 35.96 36.23 36.59 37.53 37.95 38.24 38.70 39.46 40.16 40.47 41.18 42.18 43.61 44.56 44.54 44.75 45.66 47.33 48.28 49.49 50.20
33.21 33.38 33.57 34.64 35.04 35.52 36.00 36.47 37.32 37.49 38.39 38.79 40.79 43.97 45.40 45.34 42.64 43.17 43.94 45.56 47.10 47.81
31.89 31.54 31.44 32.20 32.40 32.36 32.94 33.83 34.35 35.35 36.41 36.78 37.69 41.77 42.92 43.69 42.87 41.21 41.06 41.30 42.50 44.12
31.29 30.62 30.73 30.39 30.25 30.17 31.41 31.88 32.55 33.10 34.88 35.24 36.81 39.33 40.86 42.15 41.52 42.27 41.61 40.04 39.66 40.01
30.92 29.81 29.70 29.12 28.59 28.93 29.49 29.77 29.83 32.39 32.73 32.49 33.26 37.90 38.73 39.58 39.41 39.39 40.18 41.84 41.53 40.00
30.42 29.44 28.50 28.19 27.93 28.48 28.41 28.91 30.13 29.66 29.77 33.19 31.36 36.01 38.33 37.60 37.90 38.18 38.76 39.89 41.43 42.74
29.51 28.53 28.24 27.50 27.24 26.59 26.38 26.59 26.21 27.11 28.01 28.66 30.31 31.79 37.48 38.42 34.86 35.18 36.79 38.43 39.05 41.01

GFSNIL_sfc_wetblb_096.txt.gz
Wetbulb
48.28 49.99 50.19 50.38 51.33 51.82 52.43 54.06 57.98 59.19 59.21 58.98 59.10 59.11 59.13 59.18 59.52 59.45 59.16 58.82 59.05 59.20
44.95 45.66 46.58 47.14 48.01 48.67 49.63 51.32 52.74 54.56 56.30 58.59 59.16 59.08 59.11 59.06 59.06 59.37 59.55 59.20 58.83 58.70
43.10 43.45 43.70 44.69 44.41 45.38 46.25 47.06 47.72 49.11 52.25 53.17 54.26 55.87 57.23 58.36 58.92 58.73 58.84 58.70 58.30 58.36
41.86 42.40 42.41 42.45 42.99 43.52 44.26 44.59 44.76 45.47 46.57 48.10 49.85 51.14 52.87 54.70 55.92 57.04 57.49 57.58 57.34 57.23
39.26 39.69 39.77 39.92 41.11 42.26 42.07 42.93 43.14 43.65 44.00 44.49 45.47 47.22 48.65 49.54 52.15 53.41 54.46 55.35 55.54 55.55
36.76 36.87 37.18 37.79 38.35 39.13 39.72 40.26 41.17 41.40 41.48 42.13 43.08 44.37 45.15 45.87 46.82 48.91 51.26 53.04 53.94 54.55
33.37 33.91 34.72 35.34 36.11 36.73 37.07 37.42 37.98 39.10 39.32 40.23 41.19 42.55 43.88 44.20 43.83 44.17 45.69 48.11 50.28 51.31
32.29 32.51 32.71 33.21 33.76 34.33 34.84 35.13 36.13 36.44 37.04 37.64 38.45 40.51 41.93 42.87 43.08 42.38 42.74 44.04 46.06 48.12
31.26 31.05 30.77 31.08 31.25 31.31 31.76 32.63 33.46 33.61 34.72 35.42 37.74 40.92 40.75 41.02 40.33 41.60 41.84 41.31 42.45 43.78
30.42 29.85 29.66 29.76 29.47 29.32 29.32 30.30 30.63 31.05 32.55 33.13 33.98 39.76 39.98 39.93 38.61 39.26 40.17 40.83 41.57 41.61
30.19 29.08 29.02 28.64 28.21 27.77 28.50 28.87 28.97 29.13 30.57 31.21 32.73 38.22 38.98 39.28 35.96 36.83 38.55 39.25 39.96 40.99
29.70 28.48 28.03 27.41 26.90 27.29 27.51 27.10 26.99 28.72 29.08 28.32 29.58 36.23 37.07 37.12 33.43 34.58 35.34 37.63 39.04 39.53
28.81 27.66 26.78 26.56 26.24 26.33 25.98 27.07 27.28 27.04 26.77 29.47 28.34 33.16 35.74 35.66 32.75 31.34 32.91 34.40 37.02 40.58
27.67 27.17 26.94 26.17 25.68 25.30 25.30 25.22 23.60 24.91 24.44 25.20 27.07 28.06 34.72 35.90 33.07 32.51 32.46 33.36 33.50 35.34

GFSNIL_sfc_wetblb_099.txt.gz
Wetbulb
46.43 47.64 47.77 47.88 48.84 48.76 49.33 50.24 51.35 54.43 58.35 59.15 59.29 59.26 58.95 58.77 59.07 59.34 58.87 58.64 58.78 58.92
44.21 44.36 44.50 45.81 46.61 46.71 47.28 48.58 48.62 50.18 52.13 53.41 53.97 55.96 58.25 58.90 58.40 58.68 58.86 58.71 58.78 58.62
42.37 42.88 43.44 44.04 43.63 44.29 45.05 45.60 46.08 46.80 47.82 48.92 50.70 51.83 53.22 54.41 55.66 57.12 58.75 58.82 58.62 58.69
40.11 40.28 40.66 40.75 41.15 42.27 42.87 43.58 43.46 44.16 44.71 45.15 46.09 47.77 49.35 50.19 51.26 52.13 53.73 55.65 57.23 57.56
38.30 38.47 38.41 38.73 39.23 39.96 39.78 40.86 40.94 41.13 42.13 43.26 44.36 45.34 45.31 45.34 46.28 47.18 48.48 51.11 52.74 53.91
35.67 36.06 35.99 36.55 37.48 38.03 38.32 38.59 39.10 39.60 39.40 39.77 41.85 43.42 44.14 44.48 44.35 44.72 45.26 45.81 47.21 49.52
34.19 34.44 34.77 35.24 35.44 35.87 36.37 36.41 36.69 37.49 38.18 38.72 39.60 40.76 40.61 41.61 42.21 42.76 43.46 44.29 45.19 46.12
33.77 34.00 33.84 33.90 33.88 34.37 34.88 35.13 35.39 35.44 36.20 36.77 37.68 39.39 39.85 39.67 40.31 40.28 40.62 42.45 43.29 44.24
33.37 33.01 32.65 32.80 32.81 33.01 33.05 33.71 33.84 33.73 34.06 34.68 35.23 38.13 40.35 39.82 38.49 38.85 38.87 38.50 40.47 42.21
32.93 32.25 32.13 32.05 31.97 31.77 31.78 32.46 32.38 32.45 32.60 32.79 33.53 36.79 38.86 39.06 38.01 36.89 37.22 38.56 38.92 39.03
32.16 31.77 31.73 31.43 31.12 31.21 31.68 31.56 31.24 31.33 31.59 31.54 32.23 35.50 37.19 37.55 37.17 36.70 36.82 37.24 37.64 38.62
31.12 30.57 30.41 30.17 29.76 30.06 30.33 30.03 30.06 30.54 30.14 29.76 30.45 34.05 35.19 35.59 35.10 34.92 35.44 36.46 37.00 36.76
29.91 29.56 29.44 29.59 29.45 29.82 29.30 29.45 30.14 29.39 29.80 29.92 29.59 31.72 33.86 34.68 34.51 33.23 34.22 35.66 35.43 36.40
29.22 28.50 28.74 28.88 28.62 28.38 28.24 28.29 27.28 27.58 28.44 27.97 28.98 29.86 33.26 34.81 33.72 33.48 33.73 33.63 33.24 34.08

GFSNIL_sfc_wetblb_102.txt.gz
Wetbulb
45.55 45.97 45.98 46.43 47.07 46.96 47.16 48.55 49.37 50.65 51.33 52.80 53.72 56.28 59.25 59.45 59.03 58.77 58.34 57.52 57.12 56.75
43.78 43.90 44.17 44.84 46.51 46.37 46.67 46.81 47.05 48.06 48.26 48.90 50.48 51.93 53.62 55.03 55.32 58.03 57.81 57.75 58.03 57.71
40.95 41.24 41.90 42.57 42.19 44.07 45.14 45.08 46.20 45.88 46.44 46.91 47.81 48.65 49.88 50.99 51.16 52.83 53.93 55.43 57.39 57.93
40.21 40.02 40.44 40.26 40.37 40.73 41.53 42.42 41.59 42.09 43.93 45.47 45.89 46.78 47.01 47.25 47.17 47.51 48.51 50.08 51.45 53.15
40.04 40.12 39.75 39.07 40.23 40.73 40.12 40.11 40.98 41.37 41.26 40.99 42.53 44.07 44.66 45.23 46.16 45.82 45.73 46.24 47.32 48.41
38.86 39.13 38.85 39.15 38.87 39.50 39.71 39.59 39.54 39.79 39.31 39.69 40.43 41.62 41.58 41.84 42.03 42.58 43.83 44.92 45.63 46.42
38.39 38.44 38.50 38.73 38.82 38.65 38.92 38.55 38.45 38.76 38.73 38.78 39.36 40.39 41.11 41.09 40.94 41.23 41.53 42.36 43.65 44.60
38.17 38.21 38.12 37.96 37.71 37.76 37.92 37.93 37.98 37.57 37.60 38.05 37.82 37.56 39.43 40.18 40.03 39.70 39.51 40.45 40.87 42.25
37.71 37.67 37.49 37.41 37.18 37.28 37.03 37.04 36.93 36.54 36.24 36.27 36.27 36.75 38.17 39.08 38.39 38.86 38.08 37.79 39.19 40.63
36.79 36.69 36.79 36.80 36.48 36.07 35.77 36.20 35.73 35.66 35.50 34.94 35.50 35.50 36.46 37.43 37.52 37.72 37.70 37.70 37.92 38.03
35.82 35.25 35.51 35.16 34.93 35.05 35.15 34.81 34.49 34.45 34.56 34.16 34.18 34.66 35.27 35.69 36.03 36.38 36.76 37.14 37.51 37.63
34.21 33.41 33.53 33.34 33.62 34.08 33.89 33.87 33.82 33.95 33.65 33.18 33.31 34.21 34.26 34.45 34.73 34.95 35.34 36.22 37.02 37.35
33.52 32.96 32.57 32.87 32.76 33.28 33.30 32.76 33.24 32.63 33.17 33.23 32.45 33.55 33.69 34.07 34.09 33.53 34.24 35.62 36.33 36.93
33.01 32.36 32.27 32.33 32.57 32.23 31.84 31.64 31.40 31.48 32.42 32.61 32.85 32.54 33.35 34.01 33.60 33.31 33.36 33.75 34.34 35.67

GFSNIL_sfc_wetblb_105.txt.gz
Wetbulb
46.55 46.65 46.39 45.66 46.89 46.24 46.49 47.13 47.89 47.86 48.56 49.20 49.53 50.33 51.96 52.66 54.64 58.60 58.34 57.95 57.97 57.53
42.11 42.14 42.08 42.93 44.29 46.29 45.68 45.07 46.37 47.04 47.09 47.59 48.08 48.50 48.90 49.61 48.93 51.43 52.47 54.92 56.21 57.08
40.31 40.92 40.96 41.24 41.07 41.35 41.98 42.80 43.47 42.95 43.84 45.23 46.39 47.33 47.65 47.36 47.62 47.65 48.80 49.34 49.86 51.91
40.52 40.41 39.97 39.90 40.27 40.56 40.72 40.30 40.38 40.91 41.22 41.40 42.02 42.80 42.70 43.77 44.83 45.44 46.40 47.31 47.65 48.54
39.95 39.93 39.51 39.35 39.38 39.80 39.82 40.48 39.81 39.68 39.81 39.80 40.45 41.52 41.11 40.86 41.52 41.41 41.80 42.98 44.76 46.16
39.64 39.58 39.49 39.37 39.65 39.74 39.40 39.29 39.50 39.03 38.49 38.62 38.81 39.14 40.13 40.55 40.55 40.77 41.02 41.24 41.93 42.98
39.32 39.25 39.25 39.38 39.12 38.78 38.86 38.41 38.02 37.97 37.96 37.85 37.91 37.82 37.67 38.73 39.17 39.44 39.85 40.00 40.71 40.74
39.24 39.37 39.11 38.81 38.62 38.44 38.17 37.74 37.54 37.15 37.10 37.06 37.07 36.73 36.12 36.81 37.51 37.67 38.25 38.89 39.08 39.94
38.49 38.53 38.25 37.86 37.25 37.18 37.07 36.94 36.83 36.36 36.07 35.68 35.82 37.83 37.09 36.58 35.48 36.32 36.69 36.85 37.64 38.51
37.62 36.69 36.36 36.33 35.94 35.63 35.50 35.79 35.54 35.40 35.29 34.71 35.05 36.50 36.18 36.37 34.71 34.77 35.61 36.24 36.51 36.78
35.90 34.93 34.99 34.71 34.42 34.63 34.84 34.42 34.31 34.40 34.66 34.48 34.63 35.89 35.67 35.58 34.26 34.53 35.24 35.91 35.93 35.71
34.66 33.67 33.61 33.46 33.52 33.86 33.75 33.72 33.76 33.94 33.70 33.27 33.56 35.47 35.24 34.45 33.33 33.62 33.89 35.22 35.76 35.85
34.10 33.29 32.67 32.84 32.86 33.43 33.37 32.57 32.94 32.48 33.11 33.82 32.74 34.53 34.63 33.89 32.88 31.87 32.71 33.99 35.07 37.39
33.37 32.93 32.75 32.51 32.74 32.42 32.05 31.80 31.38 31.33 32.24 32.56 33.22 33.03 34.44 34.19 32.20 31.88 31.86 32.26 32.89 34.41

GFSNIL_sfc_wetblb_108.txt.gz
Wetbulb
41.22 43.52 43.55 42.00 43.42 45.26 45.07 45.60 46.51 47.18 47.70 48.06 48.45 48.62 49.16 48.68 48.27 48.98 49.09 49.80 51.54 55.12
40.47 40.99 41.09 41.84 41.97 41.39 41.59 42.42 43.35 43.31 43.35 45.58 46.77 47.09 46.75 45.91 45.19 46.26 47.04 47.47 48.53 50.22
38.83 39.02 39.12 39.43 39.04 39.26 39.24 39.31 39.48 40.27 40.72 40.98 41.14 41.55 43.45 44.53 43.67 43.00 44.13 45.56 46.37 47.33
38.00 37.98 37.93 37.58 37.78 37.95 38.57 38.44 38.07 38.59 38.66 38.66 39.00 40.19 40.47 40.67 41.43 41.64 42.21 42.99 43.28 45.58
36.08 36.68 36.74 36.27 36.57 36.98 36.17 37.12 37.15 37.15 36.57 36.74 37.54 37.79 37.61 38.02 39.26 39.15 39.10 39.61 40.39 41.61
35.07 34.70 34.06 34.33 34.93 35.82 34.98 34.90 35.12 35.22 34.48 34.61 34.89 35.88 35.89 36.48 36.95 37.45 38.01 38.29 37.86 38.88
33.78 33.66 33.56 34.16 34.51 34.45 34.00 33.11 32.94 33.33 33.78 34.33 34.15 34.87 35.05 35.01 34.69 35.29 36.07 37.50 37.24 37.43
34.35 34.52 34.29 33.94 33.37 33.03 32.89 32.78 32.48 32.50 32.49 32.40 32.92 34.43 33.07 33.31 32.95 32.58 33.61 34.51 36.68 36.73
34.51 34.07 32.80 32.04 31.72 31.62 31.53 31.35 31.35 31.18 31.35 30.76 34.05 37.46 37.85 35.96 32.25 31.94 31.73 31.68 33.50 35.20
33.49 32.41 31.61 31.63 31.21 30.67 29.97 30.04 29.94 30.11 30.62 30.21 30.36 36.96 37.43 37.03 32.56 31.47 30.92 31.61 32.39 33.35
32.22 31.08 30.90 30.22 29.69 28.94 29.15 28.81 28.97 29.33 29.96 29.64 31.64 36.02 36.39 36.49 31.51 30.48 30.70 31.49 31.84 31.83
31.02 29.93 29.86 28.98 28.33 28.66 28.52 28.15 28.28 29.68 29.04 28.39 29.19 35.10 35.72 34.40 29.33 29.75 29.62 31.21 31.40 31.56
30.49 29.52 28.37 27.98 27.42 27.88 28.11 28.52 29.25 28.69 28.50 30.97 29.06 33.43 35.17 33.80 29.22 27.50 29.03 30.17 31.51 34.61
29.57 28.46 28.20 27.26 27.03 26.81 26.76 26.69 26.01 26.32 26.09 26.27 28.07 28.10 34.40 34.65 30.69 29.24 29.31 29.14 29.42 30.92

GFSNIL_sfc_wetblb_111.txt.gz
Wetbulb
41.31 41.52 41.87 42.14 41.91 41.30 41.81 43.36 43.97 42.90 43.95 44.98 46.75 47.37 46.52 45.24 45.04 46.08 46.13 45.47 45.51 47.00
39.60 39.33 39.84 40.00 40.99 41.34 40.95 40.60 40.69 41.20 40.83 41.23 41.80 42.33 43.62 44.32 42.48 43.79 44.36 44.53 44.52 45.32
36.82 36.39 36.81 37.78 37.48 37.97 38.47 39.14 39.02 39.02 39.14 39.40 39.40 39.77 41.20 40.54 42.02 40.91 43.11 43.56 42.46 43.14
34.65 34.81 35.12 34.89 34.23 34.97 35.58 35.30 35.44 35.70 35.50 35.13 35.74 36.21 36.11 36.70 38.23 38.30 38.53 39.02 39.80 40.40
33.34 33.21 32.49 32.60 33.18 33.86 32.87 33.99 34.06 33.64 33.16 33.23 33.63 33.81 33.47 33.11 34.09 34.84 35.51 36.88 37.88 37.89
32.51 32.02 31.67 31.94 32.60 33.08 32.28 31.96 31.89 32.08 31.95 32.38 33.01 32.80 32.73 33.47 32.72 32.82 33.19 34.01 34.85 36.20
32.28 32.09 31.74 32.25 32.21 31.79 31.47 31.00 30.83 31.11 31.43 31.73 31.64 31.94 32.74 32.53 32.18 31.48 32.42 33.13 33.14 34.47
32.68 32.51 32.02 31.15 30.68 30.65 30.60 30.60 30.35 30.28 30.48 30.48 31.24 33.36 32.69 31.92 31.12 30.35 30.60 31.23 32.27 33.88
32.86 31.98 30.69 30.02 29.68 29.58 29.39 29.02 29.16 29.00 29.24 29.15 32.59 36.45 37.39 36.16 31.23 30.43 30.31 29.55 30.62 31.84
31.64 30.74 29.90 29.61 29.02 28.41 27.63 27.64 27.71 28.07 28.69 28.64 28.53 35.81 36.56 36.81 31.87 30.31 29.23 29.84 30.08 30.73
30.63 29.45 29.11 28.37 27.75 27.02 27.17 27.04 27.20 27.51 28.18 27.96 29.88 35.34 36.03 36.31 30.51 28.54 28.77 29.43 29.22 29.01
29.52 28.37 28.03 26.91 26.48 26.65 26.46 26.33 26.49 27.82 27.46 26.66 27.30 34.06 34.78 33.74 27.80 28.13 27.77 29.57 29.80 30.51
28.94 27.95 26.85 26.41 25.70 26.07 25.97 26.73 27.15 26.95 26.27 28.80 25.09 31.71 34.03 33.31 28.16 26.80 27.16 28.18 29.43 33.01
28.10 26.96 26.90 25.66 25.15 24.55 24.68 24.65 23.27 24.36 23.68 23.94 26.27 26.73 33.23 33.51 29.84 28.41 29.01 28.28 27.94 29.31

GFSNIL_sfc_wetblb_114.txt.gz
Wetbulb
40.25 40.91 41.16 41.36 41.97 41.02 40.74 40.92 41.57 41.60 41.91 42.01 42.39 43.07 44.18 43.67 42.14 42.38 42.33 43.20 43.04 44.43
36.05 35.65 36.88 37.46 38.85 39.22 39.63 39.69 39.99 40.33 39.96 40.20 39.97 40.28 41.22 40.82 41.60 42.17 42.96 43.01 42.46 42.18
33.01 33.27 33.31 33.35 32.99 33.38 33.65 34.73 35.16 35.08 35.35 35.53 36.36 37.29 36.87 36.44 37.67 37.17 38.34 39.79 39.59 39.36
32.07 32.18 31.90 31.69 31.55 31.76 32.10 32.28 32.38 32.35 32.32 32.38 32.19 32.45 32.74 32.81 33.66 33.39 33.99 35.03 35.85 36.99
31.77 31.41 30.94 31.06 31.47 31.74 30.62 31.13 30.86 31.04 31.10 31.20 31.58 31.40 31.36 31.48 32.04 31.58 31.30 31.67 32.85 33.22
31.63 31.34 30.70 30.79 31.13 30.91 30.09 29.88 30.00 30.05 29.80 30.14 30.65 30.04 30.75 31.10 31.07 31.03 30.87 30.82 30.45 31.25
31.20 30.84 30.32 30.35 29.91 29.99 29.76 29.29 29.10 29.37 29.66 30.07 30.09 30.36 30.77 31.28 30.32 29.85 30.41 30.83 30.52 30.60
31.66 31.28 30.17 29.37 29.03 28.91 28.86 28.63 28.52 28.59 28.86 28.98 30.04 32.33 31.87 31.57 30.33 29.50 29.39 29.61 30.17 31.08
31.92 30.78 29.42 28.66 28.31 28.06 27.72 27.45 27.66 27.54 27.68 27.56 31.01 35.17 36.52 35.11 30.18 29.61 28.90 27.76 28.76 29.96
30.90 29.77 28.74 28.30 27.88 27.21 26.42 26.29 26.50 27.02 27.17 26.67 26.89 35.23 35.97 36.13 30.34 28.63 27.51 28.18 28.25 28.88
30.00 28.68 28.01 27.22 26.50 25.77 25.84 26.10 26.14 25.96 26.71 26.35 28.05 34.23 34.76 35.34 27.75 27.20 27.36 28.10 27.79 27.32
29.00 27.57 26.89 26.21 25.11 25.58 25.48 24.81 24.74 26.16 25.41 24.29 25.27 32.60 33.90 32.95 27.27 27.76 27.07 28.23 28.35 29.13
28.47 26.89 25.71 25.51 24.85 25.35 24.99 26.03 26.03 25.80 24.41 27.16 23.42 30.58 32.81 32.05 27.43 26.23 26.29 26.56 27.97 31.89
27.34 26.44 25.52 24.60 24.22 23.96 23.91 24.12 22.59 23.92 22.58 22.57 24.82 25.44 32.08 32.59 27.96 26.41 26.51 26.34 26.88 27.38

GFSNIL_sfc_wetblb_117.txt.gz
Wetbulb
36.57 36.93 37.28 37.43 38.66 39.08 39.51 39.92 39.88 40.01 40.28 40.17 40.19 41.23 41.61 42.74 41.80 43.08 43.00 42.05 41.79 41.59
32.27 32.61 32.63 32.81 33.47 33.55 33.74 36.23 34.59 34.44 34.37 34.77 35.52 37.49 37.17 37.39 35.26 36.71 37.39 39.76 39.04 38.77
31.20 31.31 31.32 31.29 30.91 31.15 31.45 32.13 32.09 31.97 32.07 32.23 32.35 33.15 32.86 32.78 33.21 32.65 33.32 34.90 34.82 36.14
30.95 30.97 30.70 30.55 30.37 30.46 30.20 30.20 30.13 30.30 30.38 30.24 30.15 30.47 30.85 31.13 31.81 31.25 30.94 31.24 31.70 32.42
31.26 30.78 30.25 30.12 30.34 30.15 29.08 29.49 29.39 29.50 29.55 29.59 29.92 29.46 29.61 29.87 30.44 30.03 29.63 29.85 30.04 30.10
31.11 30.60 29.78 29.75 29.58 29.29 28.66 28.49 28.58 28.64 28.43 28.86 29.46 28.90 28.83 29.53 29.70 29.71 29.52 29.45 28.78 28.95
30.51 30.29 29.75 29.28 28.58 28.62 28.42 28.07 27.97 28.04 28.42 28.87 28.82 29.30 29.90 30.58 29.86 29.19 29.58 29.66 29.26 28.95
30.99 30.66 29.59 28.93 28.27 28.17 28.03 27.62 27.25 27.45 27.79 27.78 28.65 31.05 31.12 30.88 29.88 28.89 28.52 28.46 28.95 29.83
30.96 30.27 29.00 27.99 27.48 27.04 26.63 26.27 26.46 26.35 26.43 26.25 29.73 34.09 36.09 34.42 29.19 28.46 27.91 26.30 27.57 28.43
30.51 29.33 28.28 27.54 26.73 25.98 25.40 25.01 25.12 25.48 25.69 25.41 25.62 34.28 35.11 35.38 27.80 27.16 26.51 27.70 27.70 28.20
29.59 28.41 27.56 26.33 25.42 24.91 24.75 24.59 24.73 24.75 25.09 24.40 26.44 32.88 34.20 34.94 27.34 26.46 26.87 27.50 26.41 26.14
29.06 27.48 26.95 25.98 24.52 24.16 23.88 23.64 24.00 25.45 23.93 22.98 24.62 31.39 32.99 32.21 27.33 27.72 26.69 26.93 27.10 27.88
28.32 26.74 25.31 24.54 24.01 24.27 23.72 25.73 26.13 25.98 23.98 25.96 23.50 29.30 32.21 31.65 27.13 25.91 26.09 26.02 27.31 31.28
26.86 26.35 24.91 24.03 23.34 23.47 23.46 24.56 22.05 23.52 22.67 21.77 23.38 24.78 31.79 32.73 28.02 26.39 26.34 26.53 26.99 27.11